Time,TemperatureF,DewpointF,PressureIn,WindDirection,WindDirectionDegrees,WindSpeedMPH,WindSpeedGustMPH,Humidity,HourlyPrecipIn,Conditions,Clouds,dailyrainin,SoftwareType,DateUTC
2013-04-06 00:01:00,42.8,26.8,29.73,WSW,248,4.3,5.4,53,0.00,,,0.00,WUHU216HW,2013-04-06 06:01:00,
2013-04-06 00:02:00,42.7,26.6,29.73,West,270,4.7,5.4,53,0.00,,,0.00,WUHU216HW,2013-04-06 06:02:00,
2013-04-06 00:03:00,42.7,26.6,29.73,West,270,4.7,5.4,53,0.00,,,0.00,WUHU216HW,2013-04-06 06:03:00,
2013-04-06 00:04:00,42.5,26.6,29.73,WSW,248,5.8,6.0,53,0.00,,,0.00,WUHU216HW,2013-04-06 06:04:00,
2013-04-06 00:06:00,42.1,26.2,29.73,WSW,248,6.3,6.3,53,0.00,,,0.00,WUHU216HW,2013-04-06 06:06:00,
2013-04-06 00:07:00,42.1,27.0,29.73,WSW,248,6.0,6.3,55,0.00,,,0.00,WUHU216HW,2013-04-06 06:07:00,
2013-04-06 00:08:00,42.1,27.0,29.73,West,270,5.8,6.7,55,0.00,,,0.00,WUHU216HW,2013-04-06 06:08:00,
2013-04-06 00:09:00,41.9,27.3,29.73,West,270,5.4,6.7,56,0.00,,,0.00,WUHU216HW,2013-04-06 06:09:00,
2013-04-06 00:12:00,42.1,27.5,29.73,West,270,4.9,6.7,56,0.00,,,0.00,WUHU216HW,2013-04-06 06:12:00,
2013-04-06 00:13:00,42.1,27.5,29.73,West,270,3.8,6.7,56,0.00,,,0.00,WUHU216HW,2013-04-06 06:13:00,
2013-04-06 00:14:00,42.1,27.9,29.73,West,270,3.8,6.7,57,0.00,,,0.00,WUHU216HW,2013-04-06 06:14:00,
2013-04-06 00:17:00,42.1,27.9,29.73,West,270,5.1,6.7,57,0.00,,,0.00,WUHU216HW,2013-04-06 06:17:00,
2013-04-06 00:18:00,42.3,28.1,29.73,West,270,5.4,6.5,57,0.00,,,0.00,WUHU216HW,2013-04-06 06:18:00,
2013-04-06 00:20:00,42.3,27.6,29.73,West,270,4.9,6.5,56,0.00,,,0.00,WUHU216HW,2013-04-06 06:20:00,
2013-04-06 00:22:00,42.3,28.1,29.73,West,270,5.4,5.8,57,0.00,,,0.00,WUHU216HW,2013-04-06 06:22:00,
2013-04-06 00:23:00,42.3,28.1,29.73,West,270,4.9,5.8,57,0.00,,,0.00,WUHU216HW,2013-04-06 06:23:00,
2013-04-06 00:25:00,42.3,28.5,29.73,West,270,4.5,5.8,58,0.00,,,0.00,WUHU216HW,2013-04-06 06:25:00,
2013-04-06 00:27:00,42.1,28.4,29.73,WNW,293,2.5,5.8,58,0.00,,,0.00,WUHU216HW,2013-04-06 06:27:00,
2013-04-06 00:28:00,42.1,28.4,29.73,WNW,293,2.9,5.8,58,0.00,,,0.00,WUHU216HW,2013-04-06 06:28:00,
2013-04-06 00:30:00,42.1,28.8,29.73,North,0,1.1,5.4,59,0.00,,,0.00,WUHU216HW,2013-04-06 06:30:00,
2013-04-06 00:32:00,41.9,28.2,29.73,WSW,248,4.5,4.9,58,0.00,,,0.00,WUHU216HW,2013-04-06 06:32:00,
2013-04-06 00:33:00,41.9,27.7,29.73,West,270,4.0,4.7,57,0.00,,,0.00,WUHU216HW,2013-04-06 06:33:00,
2013-04-06 00:35:00,41.9,27.7,29.73,WSW,248,4.0,4.5,57,0.00,,,0.00,WUHU216HW,2013-04-06 06:35:00,
2013-04-06 00:37:00,41.9,28.2,29.73,NW,315,2.9,4.5,58,0.00,,,0.00,WUHU216HW,2013-04-06 06:37:00,
2013-04-06 00:39:00,41.9,28.2,29.73,WNW,293,1.8,4.5,58,0.00,,,0.00,WUHU216HW,2013-04-06 06:39:00,
2013-04-06 00:40:00,41.9,28.2,29.73,West,270,5.8,5.8,58,0.00,,,0.00,WUHU216HW,2013-04-06 06:40:00,
2013-04-06 00:41:00,41.9,28.2,29.73,West,270,7.6,7.6,58,0.00,,,0.00,WUHU216HW,2013-04-06 06:41:00,
2013-04-06 00:43:00,41.8,27.5,29.73,West,270,7.2,7.6,57,0.00,,,0.00,WUHU216HW,2013-04-06 06:43:00,
2013-04-06 00:44:00,41.6,27.5,29.73,West,270,7.4,7.6,57,0.00,,,0.00,WUHU216HW,2013-04-06 06:44:00,
2013-04-06 00:45:00,41.4,27.3,29.73,WSW,248,7.2,7.6,57,0.00,,,0.00,WUHU216HW,2013-04-06 06:45:00,
2013-04-06 00:46:00,41.4,27.7,29.73,West,270,6.9,7.6,58,0.00,,,0.00,WUHU216HW,2013-04-06 06:46:00,
2013-04-06 00:48:00,41.4,27.7,29.73,West,270,4.7,7.6,58,0.00,,,0.00,WUHU216HW,2013-04-06 06:48:00,
2013-04-06 00:49:00,41.4,27.7,29.73,WNW,293,4.5,7.6,58,0.00,,,0.00,WUHU216HW,2013-04-06 06:49:00,
2013-04-06 00:50:00,41.2,27.1,29.73,West,270,2.5,7.6,57,0.00,,,0.00,WUHU216HW,2013-04-06 06:50:00,
2013-04-06 00:51:00,41.2,27.1,29.73,West,270,2.5,7.6,57,0.00,,,0.00,WUHU216HW,2013-04-06 06:51:00,
2013-04-06 00:53:00,41.0,27.4,29.73,WSW,248,6.0,7.4,58,0.00,,,0.00,WUHU216HW,2013-04-06 06:53:00,
2013-04-06 00:54:00,41.0,27.4,29.73,West,270,6.7,7.4,58,0.00,,,0.00,WUHU216HW,2013-04-06 06:54:00,
2013-04-06 00:55:00,41.0,26.9,29.73,WSW,248,6.5,6.9,57,0.00,,,0.00,WUHU216HW,2013-04-06 06:55:00,
2013-04-06 00:57:00,40.9,27.2,29.73,WSW,248,5.6,6.7,58,0.00,,,0.00,WUHU216HW,2013-04-06 06:57:00,
2013-04-06 00:58:00,40.9,27.2,29.73,West,270,6.7,6.7,58,0.00,,,0.00,WUHU216HW,2013-04-06 06:58:00,
2013-04-06 00:59:00,40.9,26.7,29.73,WSW,248,6.5,6.7,57,0.00,,,0.00,WUHU216HW,2013-04-06 06:59:00,
2013-04-06 01:01:00,41.0,27.4,29.73,WSW,248,4.5,6.7,58,0.00,,,0.00,WUHU216HW,2013-04-06 07:01:00,
2013-04-06 01:02:00,41.0,27.4,29.73,West,270,5.8,6.7,58,0.00,,,0.00,WUHU216HW,2013-04-06 07:02:00,
2013-04-06 01:05:00,41.0,26.9,29.73,WSW,248,5.4,6.7,57,0.00,,,0.00,WUHU216HW,2013-04-06 07:05:00,
2013-04-06 01:07:00,41.0,26.9,29.73,West,270,3.6,6.7,57,0.00,,,0.00,WUHU216HW,2013-04-06 07:07:00,
2013-04-06 01:10:00,40.9,26.7,29.72,WSW,248,2.2,6.0,57,0.00,,,0.00,WUHU216HW,2013-04-06 07:10:00,
2013-04-06 01:12:00,40.9,27.2,29.72,West,270,4.0,6.0,58,0.00,,,0.00,WUHU216HW,2013-04-06 07:12:00,
2013-04-06 01:13:00,41.0,27.4,29.72,WNW,293,2.2,6.0,58,0.00,,,0.00,WUHU216HW,2013-04-06 07:13:00,
2013-04-06 01:16:00,41.9,27.3,29.72,West,270,4.9,7.4,56,0.00,,,0.00,WUHU216HW,2013-04-06 07:16:00,
2013-04-06 01:17:00,42.1,27.5,29.72,WNW,293,4.0,7.4,56,0.00,,,0.00,WUHU216HW,2013-04-06 07:17:00,
2013-04-06 01:18:00,42.1,27.5,29.73,WNW,293,3.8,7.4,56,0.00,,,0.00,WUHU216HW,2013-04-06 07:18:00,
2013-04-06 01:22:00,42.8,27.7,29.72,West,270,5.6,7.4,55,0.00,,,0.00,WUHU216HW,2013-04-06 07:22:00,
2013-04-06 01:23:00,42.8,27.3,29.72,WNW,293,4.3,7.4,54,0.00,,,0.00,WUHU216HW,2013-04-06 07:23:00,
2013-04-06 01:27:00,42.8,27.7,29.72,WNW,293,3.4,6.3,55,0.00,,,0.00,WUHU216HW,2013-04-06 07:27:00,
2013-04-06 01:28:00,42.8,27.3,29.72,NW,315,3.4,6.3,54,0.00,,,0.00,WUHU216HW,2013-04-06 07:28:00,
2013-04-06 01:30:00,42.7,27.5,29.72,NNW,338,4.0,6.3,55,0.00,,,0.00,WUHU216HW,2013-04-06 07:30:00,
2013-04-06 01:32:00,42.5,27.4,29.72,West,270,5.4,5.4,55,0.00,,,0.00,WUHU216HW,2013-04-06 07:32:00,
2013-04-06 01:33:00,42.5,26.9,29.72,West,270,7.8,7.8,54,0.00,,,0.00,WUHU216HW,2013-04-06 07:33:00,
2013-04-06 01:35:00,41.8,26.7,29.72,WSW,248,6.5,8.1,55,0.00,,,0.00,WUHU216HW,2013-04-06 07:35:00,
2013-04-06 01:37:00,41.4,26.8,29.72,WSW,248,4.5,8.1,56,0.00,,,0.00,WUHU216HW,2013-04-06 07:37:00,
2013-04-06 01:38:00,41.4,26.8,29.72,WSW,248,6.0,8.1,56,0.00,,,0.00,WUHU216HW,2013-04-06 07:38:00,
2013-04-06 01:40:00,41.0,26.9,29.72,West,270,6.0,8.1,57,0.00,,,0.00,WUHU216HW,2013-04-06 07:40:00,
2013-04-06 01:42:00,41.2,27.1,29.72,WNW,293,3.8,8.1,57,0.00,,,0.00,WUHU216HW,2013-04-06 07:42:00,
2013-04-06 01:43:00,41.2,27.1,29.72,WNW,293,3.4,8.1,57,0.00,,,0.00,WUHU216HW,2013-04-06 07:43:00,
2013-04-06 01:47:00,41.4,26.8,29.72,West,270,6.7,7.2,56,0.00,,,0.00,WUHU216HW,2013-04-06 07:47:00,
2013-04-06 01:48:00,41.4,26.8,29.72,West,270,6.3,7.2,56,0.00,,,0.00,WUHU216HW,2013-04-06 07:48:00,
2013-04-06 01:52:00,40.7,26.6,29.72,West,270,5.1,7.6,57,0.00,,,0.00,WUHU216HW,2013-04-06 07:52:00,
2013-04-06 01:53:00,40.7,26.6,29.72,West,270,5.1,7.6,57,0.00,,,0.00,WUHU216HW,2013-04-06 07:53:00,
2013-04-06 01:54:00,40.7,26.6,29.72,West,270,6.7,7.6,57,0.00,,,0.00,WUHU216HW,2013-04-06 07:54:00,
2013-04-06 01:58:00,40.3,26.6,29.72,West,270,7.6,7.6,58,0.00,,,0.00,WUHU216HW,2013-04-06 07:58:00,
2013-04-06 01:59:00,40.3,26.2,29.73,WSW,248,6.9,7.6,57,0.00,,,0.00,WUHU216HW,2013-04-06 07:59:00,
2013-04-06 02:03:00,40.0,26.3,29.73,West,270,8.1,8.1,58,0.00,,,0.00,WUHU216HW,2013-04-06 08:03:00,
2013-04-06 02:04:00,40.0,26.3,29.73,West,270,5.4,8.1,58,0.00,,,0.00,WUHU216HW,2013-04-06 08:04:00,
2013-04-06 02:08:00,40.1,26.5,29.72,West,270,6.9,8.1,58,0.00,,,0.00,WUHU216HW,2013-04-06 08:08:00,
2013-04-06 02:09:00,40.3,26.6,29.73,West,270,6.9,8.1,58,0.00,,,0.00,WUHU216HW,2013-04-06 08:09:00,
2013-04-06 02:13:00,40.1,26.5,29.72,West,270,7.8,8.1,58,0.00,,,0.00,WUHU216HW,2013-04-06 08:13:00,
2013-04-06 02:14:00,40.1,26.5,29.73,West,270,7.8,7.8,58,0.00,,,0.00,WUHU216HW,2013-04-06 08:14:00,
2013-04-06 02:18:00,40.5,26.8,29.73,West,270,7.4,8.5,58,0.00,,,0.00,WUHU216HW,2013-04-06 08:18:00,
2013-04-06 02:20:00,40.7,27.0,29.72,West,270,7.8,8.5,58,0.00,,,0.00,WUHU216HW,2013-04-06 08:20:00,
2013-04-06 02:23:00,41.0,26.9,29.72,West,270,5.4,8.5,57,0.00,,,0.00,WUHU216HW,2013-04-06 08:23:00,
2013-04-06 02:24:00,41.0,26.9,29.72,West,270,6.0,8.5,57,0.00,,,0.00,WUHU216HW,2013-04-06 08:24:00,
2013-04-06 02:25:00,41.0,26.9,29.72,West,270,6.0,8.5,57,0.00,,,0.00,WUHU216HW,2013-04-06 08:25:00,
2013-04-06 02:28:00,41.0,26.9,29.72,WSW,248,6.3,8.3,57,0.00,,,0.00,WUHU216HW,2013-04-06 08:28:00,
2013-04-06 02:29:00,41.0,26.5,29.72,West,270,7.4,8.3,56,0.00,,,0.00,WUHU216HW,2013-04-06 08:29:00,
2013-04-06 02:30:00,41.0,26.9,29.72,West,270,7.2,8.3,57,0.00,,,0.00,WUHU216HW,2013-04-06 08:30:00,
2013-04-06 02:33:00,41.0,26.9,29.72,WSW,248,8.9,9.2,57,0.00,,,0.00,WUHU216HW,2013-04-06 08:33:00,
2013-04-06 02:34:00,41.0,26.9,29.72,WSW,248,9.2,9.2,57,0.00,,,0.00,WUHU216HW,2013-04-06 08:34:00,
2013-04-06 02:35:00,41.2,27.1,29.72,WSW,248,8.5,9.2,57,0.00,,,0.00,WUHU216HW,2013-04-06 08:35:00,
2013-04-06 02:38:00,41.4,26.8,29.72,WSW,248,6.3,9.2,56,0.00,,,0.00,WUHU216HW,2013-04-06 08:38:00,
2013-04-06 02:39:00,41.4,26.8,29.72,WSW,248,6.3,9.2,56,0.00,,,0.00,WUHU216HW,2013-04-06 08:39:00,
2013-04-06 02:40:00,41.4,26.8,29.72,WSW,248,7.2,9.2,56,0.00,,,0.00,WUHU216HW,2013-04-06 08:40:00,
2013-04-06 02:44:00,41.4,26.8,29.72,WSW,248,5.4,9.2,56,0.00,,,0.00,WUHU216HW,2013-04-06 08:44:00,
2013-04-06 02:46:00,41.2,26.7,29.72,WSW,248,5.1,8.1,56,0.00,,,0.00,WUHU216HW,2013-04-06 08:46:00,
2013-04-06 02:49:00,41.2,26.2,29.72,WSW,248,5.4,7.2,55,0.00,,,0.00,WUHU216HW,2013-04-06 08:49:00,
2013-04-06 02:50:00,41.2,26.2,29.72,WSW,248,6.5,6.9,55,0.00,,,0.00,WUHU216HW,2013-04-06 08:50:00,
2013-04-06 02:52:00,41.4,26.4,29.72,WSW,248,6.0,6.5,55,0.00,,,0.00,WUHU216HW,2013-04-06 08:52:00,
2013-04-06 02:54:00,41.4,26.8,29.72,WSW,248,7.6,7.6,56,0.00,,,0.00,WUHU216HW,2013-04-06 08:54:00,
2013-04-06 02:55:00,41.4,26.8,29.72,WSW,248,7.6,7.6,56,0.00,,,0.00,WUHU216HW,2013-04-06 08:55:00,
2013-04-06 02:57:00,41.4,26.8,29.72,WSW,248,8.5,8.7,56,0.00,,,0.00,WUHU216HW,2013-04-06 08:57:00,
2013-04-06 03:00:00,41.4,26.8,29.72,WSW,248,8.1,8.7,56,0.00,,,0.00,WUHU216HW,2013-04-06 09:00:00,
2013-04-06 03:01:00,41.4,26.8,29.72,WSW,248,7.6,8.7,56,0.00,,,0.00,WUHU216HW,2013-04-06 09:01:00,
2013-04-06 03:02:00,41.6,27.0,29.71,WSW,248,8.5,8.7,56,0.00,,,0.00,WUHU216HW,2013-04-06 09:02:00,
2013-04-06 03:05:00,41.6,27.0,29.71,WSW,248,8.9,8.9,56,0.00,,,0.00,WUHU216HW,2013-04-06 09:05:00,
2013-04-06 03:06:00,41.8,27.2,29.71,West,270,9.2,9.2,56,0.00,,,0.00,WUHU216HW,2013-04-06 09:06:00,
2013-04-06 03:07:00,41.6,27.0,29.71,WSW,248,9.4,9.4,56,0.00,,,0.00,WUHU216HW,2013-04-06 09:07:00,
2013-04-06 03:10:00,41.6,27.0,29.71,WSW,248,8.5,10.5,56,0.00,,,0.00,WUHU216HW,2013-04-06 09:10:00,
2013-04-06 03:11:00,41.6,27.0,29.71,WSW,248,9.6,10.5,56,0.00,,,0.00,WUHU216HW,2013-04-06 09:11:00,
2013-04-06 03:12:00,41.8,27.2,29.71,WSW,248,11.0,11.0,56,0.00,,,0.00,WUHU216HW,2013-04-06 09:12:00,
2013-04-06 03:15:00,41.8,27.2,29.71,West,270,10.5,11.0,56,0.00,,,0.00,WUHU216HW,2013-04-06 09:15:00,
2013-04-06 03:16:00,41.9,27.3,29.71,WSW,248,12.1,12.1,56,0.00,,,0.00,WUHU216HW,2013-04-06 09:16:00,
2013-04-06 03:17:00,41.9,27.3,29.71,West,270,10.5,12.1,56,0.00,,,0.00,WUHU216HW,2013-04-06 09:17:00,
2013-04-06 03:20:00,42.1,27.5,29.71,West,270,11.2,12.1,56,0.00,,,0.00,WUHU216HW,2013-04-06 09:20:00,
2013-04-06 03:22:00,42.1,27.5,29.71,West,270,11.4,12.1,56,0.00,,,0.00,WUHU216HW,2013-04-06 09:22:00,
2013-04-06 03:23:00,42.1,27.0,29.71,West,270,10.5,12.1,55,0.00,,,0.00,WUHU216HW,2013-04-06 09:23:00,
2013-04-06 03:25:00,42.1,27.0,29.71,WSW,248,10.3,12.1,55,0.00,,,0.00,WUHU216HW,2013-04-06 09:25:00,
2013-04-06 03:27:00,42.1,27.5,29.71,West,270,9.6,11.9,56,0.00,,,0.00,WUHU216HW,2013-04-06 09:27:00,
2013-04-06 03:28:00,42.1,27.5,29.71,West,270,9.6,11.9,56,0.00,,,0.00,WUHU216HW,2013-04-06 09:28:00,
2013-04-06 03:30:00,42.1,27.0,29.71,West,270,11.0,11.4,55,0.00,,,0.00,WUHU216HW,2013-04-06 09:30:00,
2013-04-06 03:32:00,42.1,27.0,29.71,WSW,248,10.5,11.4,55,0.00,,,0.00,WUHU216HW,2013-04-06 09:32:00,
2013-04-06 03:33:00,42.1,27.5,29.71,WSW,248,10.3,11.4,56,0.00,,,0.00,WUHU216HW,2013-04-06 09:33:00,
2013-04-06 03:35:00,42.1,27.0,29.71,WSW,248,9.2,11.0,55,0.00,,,0.00,WUHU216HW,2013-04-06 09:35:00,
2013-04-06 03:37:00,42.1,27.0,29.71,West,270,10.5,11.6,55,0.00,,,0.00,WUHU216HW,2013-04-06 09:37:00,
2013-04-06 03:40:00,42.1,27.0,29.71,WSW,248,9.8,11.6,55,0.00,,,0.00,WUHU216HW,2013-04-06 09:40:00,
2013-04-06 03:41:00,42.3,27.2,29.71,West,270,9.2,11.6,55,0.00,,,0.00,WUHU216HW,2013-04-06 09:41:00,
2013-04-06 03:42:00,42.1,27.0,29.71,West,270,8.3,11.6,55,0.00,,,0.00,WUHU216HW,2013-04-06 09:42:00,
2013-04-06 03:45:00,42.3,27.2,29.71,West,270,8.1,11.6,55,0.00,,,0.00,WUHU216HW,2013-04-06 09:45:00,
2013-04-06 03:47:00,42.5,27.4,29.71,West,270,8.9,11.2,55,0.00,,,0.00,WUHU216HW,2013-04-06 09:47:00,
2013-04-06 03:51:00,42.5,26.9,29.70,West,270,7.6,9.8,54,0.00,,,0.00,WUHU216HW,2013-04-06 09:51:00,
2013-04-06 03:52:00,42.5,26.9,29.71,West,270,4.9,9.2,54,0.00,,,0.00,WUHU216HW,2013-04-06 09:52:00,
2013-04-06 03:56:00,42.5,26.9,29.70,West,270,5.1,9.2,54,0.00,,,0.00,WUHU216HW,2013-04-06 09:56:00,
2013-04-06 03:57:00,42.5,26.9,29.70,West,270,4.3,7.6,54,0.00,,,0.00,WUHU216HW,2013-04-06 09:57:00,
2013-04-06 03:58:00,42.5,26.9,29.70,West,270,4.0,7.6,54,0.00,,,0.00,WUHU216HW,2013-04-06 09:58:00,
2013-04-06 04:02:00,42.5,26.9,29.71,West,270,1.8,5.6,54,0.00,,,0.00,WUHU216HW,2013-04-06 10:02:00,
2013-04-06 04:03:00,42.3,26.7,29.71,West,270,1.8,5.6,54,0.00,,,0.00,WUHU216HW,2013-04-06 10:03:00,
2013-04-06 04:05:00,42.5,26.9,29.71,WNW,293,0.9,5.4,54,0.00,,,0.00,WUHU216HW,2013-04-06 10:05:00,
2013-04-06 04:07:00,42.5,26.9,29.71,NW,315,0.2,4.0,54,0.00,,,0.00,WUHU216HW,2013-04-06 10:07:00,
2013-04-06 04:08:00,42.5,26.9,29.71,NNE,23,1.1,4.0,54,0.00,,,0.00,WUHU216HW,2013-04-06 10:08:00,
2013-04-06 04:10:00,42.5,26.9,29.70,ENE,68,4.0,4.9,54,0.00,,,0.00,WUHU216HW,2013-04-06 10:10:00,
2013-04-06 04:12:00,42.3,27.2,29.70,ENE,68,2.9,4.9,55,0.00,,,0.00,WUHU216HW,2013-04-06 10:12:00,
2013-04-06 04:13:00,42.3,26.7,29.70,ENE,68,3.1,4.9,54,0.00,,,0.00,WUHU216HW,2013-04-06 10:13:00,
2013-04-06 04:17:00,42.1,27.0,29.70,ENE,68,1.8,4.9,55,0.00,,,0.00,WUHU216HW,2013-04-06 10:17:00,
2013-04-06 04:18:00,41.9,26.9,29.70,ENE,68,2.2,4.9,55,0.00,,,0.00,WUHU216HW,2013-04-06 10:18:00,
2013-04-06 04:22:00,41.9,26.9,29.70,ESE,113,1.1,3.4,55,0.00,,,0.00,WUHU216HW,2013-04-06 10:22:00,
2013-04-06 04:23:00,41.9,26.9,29.70,SSW,203,1.8,3.4,55,0.00,,,0.00,WUHU216HW,2013-04-06 10:23:00,
2013-04-06 04:27:00,41.8,26.7,29.70,SSW,203,4.9,6.5,55,0.00,,,0.00,WUHU216HW,2013-04-06 10:27:00,
2013-04-06 04:28:00,41.6,26.6,29.70,South,180,7.6,7.6,55,0.00,,,0.00,WUHU216HW,2013-04-06 10:28:00,
2013-04-06 04:29:00,41.6,27.0,29.70,SSE,158,5.4,7.6,56,0.00,,,0.00,WUHU216HW,2013-04-06 10:29:00,
2013-04-06 04:32:00,41.4,26.8,29.70,SW,225,2.9,8.5,56,0.00,,,0.00,WUHU216HW,2013-04-06 10:32:00,
2013-04-06 04:33:00,41.4,26.8,29.70,South,180,1.6,8.5,56,0.00,,,0.00,WUHU216HW,2013-04-06 10:33:00,
2013-04-06 04:34:00,41.4,27.3,29.70,SW,225,8.1,8.5,57,0.00,,,0.00,WUHU216HW,2013-04-06 10:34:00,
2013-04-06 04:37:00,41.6,27.9,29.70,South,180,8.5,10.3,58,0.00,,,0.00,WUHU216HW,2013-04-06 10:37:00,
2013-04-06 04:38:00,41.6,27.5,29.70,South,180,7.8,10.3,57,0.00,,,0.00,WUHU216HW,2013-04-06 10:38:00,
2013-04-06 04:40:00,41.6,27.5,29.70,SSE,158,4.7,10.3,57,0.00,,,0.00,WUHU216HW,2013-04-06 10:40:00,
2013-04-06 04:42:00,41.6,27.9,29.70,South,180,9.6,10.3,58,0.00,,,0.00,WUHU216HW,2013-04-06 10:42:00,
2013-04-06 04:43:00,41.6,27.9,29.70,SSE,158,9.6,10.3,58,0.00,,,0.00,WUHU216HW,2013-04-06 10:43:00,
2013-04-06 04:45:00,41.6,27.9,29.70,South,180,6.9,10.3,58,0.00,,,0.00,WUHU216HW,2013-04-06 10:45:00,
2013-04-06 04:48:00,41.6,28.3,29.70,SSW,203,6.3,9.6,59,0.00,,,0.00,WUHU216HW,2013-04-06 10:48:00,
2013-04-06 04:50:00,41.6,28.3,29.70,South,180,3.8,9.6,59,0.00,,,0.00,WUHU216HW,2013-04-06 10:50:00,
2013-04-06 04:53:00,41.8,28.0,29.70,SSE,158,5.1,8.3,58,0.00,,,0.00,WUHU216HW,2013-04-06 10:53:00,
2013-04-06 04:55:00,41.8,28.0,29.69,SSE,158,6.3,8.3,58,0.00,,,0.00,WUHU216HW,2013-04-06 10:55:00,
2013-04-06 04:58:00,41.8,28.4,29.69,South,180,4.3,6.3,59,0.00,,,0.00,WUHU216HW,2013-04-06 10:58:00,
2013-04-06 04:59:00,41.8,28.0,29.69,SSE,158,3.8,6.3,58,0.00,,,0.00,WUHU216HW,2013-04-06 10:59:00,
2013-04-06 05:00:00,41.8,28.0,29.70,SSE,158,3.8,6.3,58,0.00,,,0.00,WUHU216HW,2013-04-06 11:00:00,
2013-04-06 05:04:00,41.8,28.0,29.69,East,90,3.1,6.3,58,0.00,,,0.00,WUHU216HW,2013-04-06 11:04:00,
2013-04-06 05:05:00,41.8,28.0,29.69,SE,135,4.5,6.3,58,0.00,,,0.00,WUHU216HW,2013-04-06 11:05:00,
2013-04-06 05:06:00,41.8,28.0,29.69,SE,135,2.5,5.6,58,0.00,,,0.00,WUHU216HW,2013-04-06 11:06:00,
2013-04-06 05:10:00,41.8,27.5,29.69,East,90,2.7,4.7,57,0.00,,,0.00,WUHU216HW,2013-04-06 11:10:00,
2013-04-06 05:12:00,41.6,27.9,29.69,East,90,3.4,4.7,58,0.00,,,0.00,WUHU216HW,2013-04-06 11:12:00,
2013-04-06 05:15:00,41.4,27.7,29.69,East,90,4.5,4.7,58,0.00,,,0.00,WUHU216HW,2013-04-06 11:15:00,
2013-04-06 05:17:00,41.0,27.4,29.69,East,90,5.6,5.6,58,0.00,,,0.00,WUHU216HW,2013-04-06 11:17:00,
2013-04-06 05:20:00,41.0,27.8,29.69,East,90,4.7,6.7,59,0.00,,,0.00,WUHU216HW,2013-04-06 11:20:00,
2013-04-06 05:21:00,40.9,27.6,29.69,East,90,4.7,6.7,59,0.00,,,0.00,WUHU216HW,2013-04-06 11:21:00,
2013-04-06 05:23:00,40.9,27.6,29.69,ESE,113,5.4,6.7,59,0.00,,,0.00,WUHU216HW,2013-04-06 11:23:00,
2013-04-06 05:25:00,40.7,27.9,29.69,ESE,113,4.7,6.7,60,0.00,,,0.00,WUHU216HW,2013-04-06 11:25:00,
2013-04-06 05:26:00,40.7,27.9,29.69,ESE,113,4.7,6.7,60,0.00,,,0.00,WUHU216HW,2013-04-06 11:26:00,
2013-04-06 05:28:00,40.7,27.9,29.69,SE,135,4.3,6.7,60,0.00,,,0.00,WUHU216HW,2013-04-06 11:28:00,
2013-04-06 05:31:00,40.7,27.9,29.70,SSE,158,4.9,6.0,60,0.00,,,0.00,WUHU216HW,2013-04-06 11:31:00,
2013-04-06 05:32:00,40.7,27.9,29.70,SSE,158,4.9,6.0,60,0.00,,,0.00,WUHU216HW,2013-04-06 11:32:00,
2013-04-06 05:33:00,40.7,27.9,29.69,SE,135,4.9,6.0,60,0.00,,,0.00,WUHU216HW,2013-04-06 11:33:00,
2013-04-06 05:34:00,40.7,28.3,29.69,SE,135,4.9,6.0,61,0.00,,,0.00,WUHU216HW,2013-04-06 11:34:00,
2013-04-06 05:37:00,40.5,28.1,29.69,SE,135,4.0,5.4,61,0.00,,,0.00,WUHU216HW,2013-04-06 11:37:00,
2013-04-06 05:38:00,40.7,28.3,29.69,SSE,158,3.1,5.4,61,0.00,,,0.00,WUHU216HW,2013-04-06 11:38:00,
2013-04-06 05:39:00,40.5,28.1,29.69,SE,135,3.1,5.4,61,0.00,,,0.00,WUHU216HW,2013-04-06 11:39:00,
2013-04-06 05:42:00,40.5,28.1,29.69,South,180,3.4,5.4,61,0.00,,,0.00,WUHU216HW,2013-04-06 11:42:00,
2013-04-06 05:43:00,40.5,28.1,29.69,South,180,1.3,5.4,61,0.00,,,0.00,WUHU216HW,2013-04-06 11:43:00,
2013-04-06 05:44:00,40.5,27.7,29.69,SSW,203,1.8,5.1,60,0.00,,,0.00,WUHU216HW,2013-04-06 11:44:00,
2013-04-06 05:47:00,40.3,27.9,29.69,SW,225,0.4,4.0,61,0.00,,,0.00,WUHU216HW,2013-04-06 11:47:00,
2013-04-06 05:48:00,40.3,27.9,29.69,SW,225,0.7,3.6,61,0.00,,,0.00,WUHU216HW,2013-04-06 11:48:00,
2013-04-06 05:49:00,40.3,27.9,29.69,SW,225,1.1,3.4,61,0.00,,,0.00,WUHU216HW,2013-04-06 11:49:00,
2013-04-06 05:52:00,40.1,27.4,29.69,SW,225,2.7,2.7,60,0.00,,,0.00,WUHU216HW,2013-04-06 11:52:00,
2013-04-06 05:53:00,40.1,27.4,29.69,SW,225,3.1,3.6,60,0.00,,,0.00,WUHU216HW,2013-04-06 11:53:00,
2013-04-06 05:54:00,40.0,27.5,29.69,SW,225,2.7,3.6,61,0.00,,,0.00,WUHU216HW,2013-04-06 11:54:00,
2013-04-06 05:55:00,40.0,27.5,29.69,SW,225,2.7,3.6,61,0.00,,,0.00,WUHU216HW,2013-04-06 11:55:00,
2013-04-06 05:57:00,40.0,27.5,29.69,WSW,248,2.7,3.6,61,0.00,,,0.00,WUHU216HW,2013-04-06 11:57:00,
2013-04-06 05:58:00,40.0,27.5,29.69,WSW,248,2.5,3.6,61,0.00,,,0.00,WUHU216HW,2013-04-06 11:58:00,
2013-04-06 05:59:00,40.0,27.5,29.69,WSW,248,2.5,3.6,61,0.00,,,0.00,WUHU216HW,2013-04-06 11:59:00,
2013-04-06 06:00:00,40.0,27.5,29.69,WSW,248,2.5,3.6,61,0.00,,,0.00,WUHU216HW,2013-04-06 12:00:00,
2013-04-06 06:02:00,39.8,27.4,29.70,WSW,248,3.1,3.6,61,0.00,,,0.00,WUHU216HW,2013-04-06 12:02:00,
2013-04-06 06:03:00,39.8,27.4,29.69,WSW,248,3.1,3.1,61,0.00,,,0.00,WUHU216HW,2013-04-06 12:03:00,
2013-04-06 06:04:00,39.8,27.4,29.70,WSW,248,2.7,3.1,61,0.00,,,0.00,WUHU216HW,2013-04-06 12:04:00,
2013-04-06 06:05:00,39.8,27.4,29.70,West,270,2.5,3.1,61,0.00,,,0.00,WUHU216HW,2013-04-06 12:05:00,
2013-04-06 06:07:00,39.6,27.5,29.70,West,270,2.7,3.1,62,0.00,,,0.00,WUHU216HW,2013-04-06 12:07:00,
2013-04-06 06:09:00,39.6,27.5,29.69,SW,225,1.8,3.1,62,0.00,,,0.00,WUHU216HW,2013-04-06 12:09:00,
2013-04-06 06:11:00,39.4,27.4,29.70,SSW,203,2.0,3.1,62,0.00,,,0.00,WUHU216HW,2013-04-06 12:11:00,
2013-04-06 06:13:00,39.4,27.4,29.69,SSW,203,1.8,3.1,62,0.00,,,0.00,WUHU216HW,2013-04-06 12:13:00,
2013-04-06 06:15:00,39.4,27.4,29.69,SSW,203,1.8,3.1,62,0.00,,,0.00,WUHU216HW,2013-04-06 12:15:00,
2013-04-06 06:16:00,39.4,27.4,29.69,South,180,1.1,3.1,62,0.00,,,0.00,WUHU216HW,2013-04-06 12:16:00,
2013-04-06 06:18:00,39.6,27.5,29.69,SSE,158,2.7,2.7,62,0.00,,,0.00,WUHU216HW,2013-04-06 12:18:00,
2013-04-06 06:20:00,39.6,27.5,29.69,SE,135,2.7,3.4,62,0.00,,,0.00,WUHU216HW,2013-04-06 12:20:00,
2013-04-06 06:21:00,39.6,27.5,29.69,SE,135,1.3,3.4,62,0.00,,,0.00,WUHU216HW,2013-04-06 12:21:00,
2013-04-06 06:24:00,39.8,27.7,29.69,South,180,0.7,3.4,62,0.00,,,0.00,WUHU216HW,2013-04-06 12:24:00,
2013-04-06 06:25:00,39.8,27.7,29.69,SSE,158,0.9,3.4,62,0.00,,,0.00,WUHU216HW,2013-04-06 12:25:00,
2013-04-06 06:27:00,39.8,27.7,29.69,SSE,158,0.4,3.4,62,0.00,,,0.00,WUHU216HW,2013-04-06 12:27:00,
2013-04-06 06:29:00,40.0,28.4,29.69,SSE,158,0.4,3.4,63,0.00,,,0.00,WUHU216HW,2013-04-06 12:29:00,
2013-04-06 06:30:00,40.0,28.4,29.69,SSE,158,0.2,2.7,63,0.00,,,0.00,WUHU216HW,2013-04-06 12:30:00,
2013-04-06 06:31:00,40.0,28.4,29.69,SSE,158,0.2,2.5,63,0.00,,,0.00,WUHU216HW,2013-04-06 12:31:00,
2013-04-06 06:32:00,40.0,27.9,29.69,SSE,158,0.0,1.6,62,0.00,,,0.00,WUHU216HW,2013-04-06 12:32:00,
2013-04-06 06:34:00,40.0,27.9,29.69,SSE,158,0.0,1.1,62,0.00,,,0.00,WUHU216HW,2013-04-06 12:34:00,
2013-04-06 06:35:00,40.0,27.9,29.69,SSE,158,0.7,1.1,62,0.00,,,0.00,WUHU216HW,2013-04-06 12:35:00,
2013-04-06 06:36:00,40.0,27.9,29.69,ESE,113,0.9,1.1,62,0.00,,,0.00,WUHU216HW,2013-04-06 12:36:00,
2013-04-06 06:37:00,40.1,28.5,29.69,ESE,113,1.3,1.3,63,0.00,,,0.00,WUHU216HW,2013-04-06 12:37:00,
2013-04-06 06:39:00,40.1,28.5,29.69,ESE,113,1.6,1.8,63,0.00,,,0.00,WUHU216HW,2013-04-06 12:39:00,
2013-04-06 06:41:00,40.1,28.5,29.69,ESE,113,1.8,1.8,63,0.00,,,0.00,WUHU216HW,2013-04-06 12:41:00,
2013-04-06 06:42:00,40.3,28.7,29.69,ESE,113,2.0,2.0,63,0.00,,,0.00,WUHU216HW,2013-04-06 12:42:00,
2013-04-06 06:45:00,40.5,28.4,29.69,ESE,113,3.4,3.4,62,0.00,,,0.00,WUHU216HW,2013-04-06 12:45:00,
2013-04-06 06:46:00,40.5,28.4,29.69,ESE,113,4.5,4.5,62,0.00,,,0.00,WUHU216HW,2013-04-06 12:46:00,
2013-04-06 06:47:00,40.7,28.6,29.69,ESE,113,4.7,4.7,62,0.00,,,0.00,WUHU216HW,2013-04-06 12:47:00,
2013-04-06 06:50:00,40.7,28.6,29.69,ESE,113,3.8,5.4,62,0.00,,,0.00,WUHU216HW,2013-04-06 12:50:00,
2013-04-06 06:51:00,40.9,28.8,29.69,South,180,1.1,5.4,62,0.00,,,0.00,WUHU216HW,2013-04-06 12:51:00,
2013-04-06 06:52:00,40.7,28.6,29.69,SW,225,1.1,5.4,62,0.00,,,0.00,WUHU216HW,2013-04-06 12:52:00,
2013-04-06 06:55:00,40.7,28.3,29.69,SSW,203,0.2,5.4,61,0.00,,,0.00,WUHU216HW,2013-04-06 12:55:00,
2013-04-06 06:57:00,40.7,28.3,29.69,SSW,203,0.0,5.4,61,0.00,,,0.00,WUHU216HW,2013-04-06 12:57:00,
2013-04-06 06:58:00,40.7,28.3,29.69,SW,225,0.0,5.4,61,0.00,,,0.00,WUHU216HW,2013-04-06 12:58:00,
2013-04-06 07:00:00,40.7,28.3,29.69,SSE,158,1.6,3.1,61,0.00,,,0.00,WUHU216HW,2013-04-06 13:00:00,
2013-04-06 07:02:00,40.7,28.3,29.69,SE,135,2.0,3.1,61,0.00,,,0.00,WUHU216HW,2013-04-06 13:02:00,
2013-04-06 07:03:00,40.7,28.3,29.69,SE,135,2.0,3.1,61,0.00,,,0.00,WUHU216HW,2013-04-06 13:03:00,
2013-04-06 07:04:00,40.7,28.3,29.69,SSE,158,2.0,3.1,61,0.00,,,0.00,WUHU216HW,2013-04-06 13:04:00,
2013-04-06 07:05:00,40.7,28.3,29.69,SSE,158,2.5,2.9,61,0.00,,,0.00,WUHU216HW,2013-04-06 13:05:00,
2013-04-06 07:08:00,40.7,28.3,29.69,SSW,203,1.8,2.9,61,0.00,,,0.00,WUHU216HW,2013-04-06 13:08:00,
2013-04-06 07:09:00,40.7,28.3,29.69,South,180,3.1,3.1,61,0.00,,,0.00,WUHU216HW,2013-04-06 13:09:00,
2013-04-06 07:10:00,40.7,28.3,29.69,South,180,4.7,4.7,61,0.00,,,0.00,WUHU216HW,2013-04-06 13:10:00,
2013-04-06 07:13:00,40.7,28.3,29.69,SSE,158,4.0,4.7,61,0.00,,,0.00,WUHU216HW,2013-04-06 13:13:00,
2013-04-06 07:14:00,40.7,28.3,29.69,SE,135,3.4,4.7,61,0.00,,,0.00,WUHU216HW,2013-04-06 13:14:00,
2013-04-06 07:16:00,40.7,28.3,29.69,SE,135,2.5,4.7,61,0.00,,,0.00,WUHU216HW,2013-04-06 13:16:00,
2013-04-06 07:18:00,40.7,28.3,29.69,South,180,2.9,4.7,61,0.00,,,0.00,WUHU216HW,2013-04-06 13:18:00,
2013-04-06 07:20:00,40.7,28.3,29.69,SSE,158,3.1,4.7,61,0.00,,,0.00,WUHU216HW,2013-04-06 13:20:00,
2013-04-06 07:21:00,40.7,28.3,29.69,SE,135,2.9,4.5,61,0.00,,,0.00,WUHU216HW,2013-04-06 13:21:00,
2013-04-06 07:23:00,40.7,28.3,29.69,SE,135,3.1,4.0,61,0.00,,,0.00,WUHU216HW,2013-04-06 13:23:00,
2013-04-06 07:25:00,40.7,28.3,29.69,SE,135,4.0,4.0,61,0.00,,,0.00,WUHU216HW,2013-04-06 13:25:00,
2013-04-06 07:27:00,40.7,28.3,29.69,SE,135,4.9,4.9,61,0.00,,,0.00,WUHU216HW,2013-04-06 13:27:00,
2013-04-06 07:28:00,40.7,28.3,29.69,SE,135,4.7,4.9,61,0.00,,,0.00,WUHU216HW,2013-04-06 13:28:00,
2013-04-06 07:29:00,40.5,28.1,29.69,SE,135,4.7,5.4,61,0.00,,,0.00,WUHU216HW,2013-04-06 13:29:00,
2013-04-06 07:30:00,40.7,28.3,29.69,SE,135,4.7,5.4,61,0.00,,,0.00,WUHU216HW,2013-04-06 13:30:00,
2013-04-06 07:32:00,40.7,28.3,29.69,SE,135,4.0,5.4,61,0.00,,,0.00,WUHU216HW,2013-04-06 13:32:00,
2013-04-06 07:33:00,40.7,28.3,29.69,South,180,2.5,5.4,61,0.00,,,0.00,WUHU216HW,2013-04-06 13:33:00,
2013-04-06 07:35:00,40.5,28.1,29.69,South,180,3.4,5.4,61,0.00,,,0.00,WUHU216HW,2013-04-06 13:35:00,
2013-04-06 07:37:00,40.7,28.3,29.69,SE,135,4.7,5.4,61,0.00,,,0.00,WUHU216HW,2013-04-06 13:37:00,
2013-04-06 07:38:00,40.7,28.3,29.69,SE,135,3.8,5.4,61,0.00,,,0.00,WUHU216HW,2013-04-06 13:38:00,
2013-04-06 07:40:00,40.7,28.3,29.69,SSE,158,3.6,5.1,61,0.00,,,0.00,WUHU216HW,2013-04-06 13:40:00,
2013-04-06 07:43:00,40.7,28.6,29.69,SSE,158,4.7,5.1,62,0.00,,,0.00,WUHU216HW,2013-04-06 13:43:00,
2013-04-06 07:45:00,40.7,28.6,29.69,SSE,158,3.4,5.1,62,0.00,,,0.00,WUHU216HW,2013-04-06 13:45:00,
2013-04-06 07:48:00,40.7,28.6,29.69,SE,135,4.9,5.1,62,0.00,,,0.00,WUHU216HW,2013-04-06 13:48:00,
2013-04-06 07:49:00,40.7,28.6,29.69,SSE,158,4.0,5.1,62,0.00,,,0.00,WUHU216HW,2013-04-06 13:49:00,
2013-04-06 07:50:00,40.7,28.6,29.69,SE,135,5.4,5.4,62,0.00,,,0.00,WUHU216HW,2013-04-06 13:50:00,
2013-04-06 07:51:00,40.7,28.6,29.69,SE,135,5.4,5.4,62,0.00,,,0.00,WUHU216HW,2013-04-06 13:51:00,
2013-04-06 07:53:00,40.9,29.3,29.69,SE,135,6.5,6.7,63,0.00,,,0.00,WUHU216HW,2013-04-06 13:53:00,
2013-04-06 07:54:00,40.7,29.1,29.69,SE,135,4.7,6.7,63,0.00,,,0.00,WUHU216HW,2013-04-06 13:54:00,
2013-04-06 07:56:00,40.9,29.3,29.69,SE,135,5.8,6.7,63,0.00,,,0.00,WUHU216HW,2013-04-06 13:56:00,
2013-04-06 07:58:00,40.9,29.3,29.69,SSE,158,3.8,6.7,63,0.00,,,0.00,WUHU216HW,2013-04-06 13:58:00,
2013-04-06 08:00:00,40.9,29.3,29.69,SE,135,4.9,6.7,63,0.00,,,0.00,WUHU216HW,2013-04-06 14:00:00,
2013-04-06 08:01:00,41.0,29.4,29.69,SE,135,6.3,6.7,63,0.00,,,0.00,WUHU216HW,2013-04-06 14:01:00,
2013-04-06 08:03:00,41.0,29.4,29.69,South,180,3.1,6.5,63,0.00,,,0.00,WUHU216HW,2013-04-06 14:03:00,
2013-04-06 08:04:00,41.0,29.4,29.69,South,180,3.1,6.5,63,0.00,,,0.00,WUHU216HW,2013-04-06 14:04:00,
2013-04-06 08:05:00,41.0,29.4,29.69,SE,135,3.4,6.5,63,0.00,,,0.00,WUHU216HW,2013-04-06 14:05:00,
2013-04-06 08:06:00,41.0,29.8,29.69,ESE,113,3.4,6.3,64,0.00,,,0.00,WUHU216HW,2013-04-06 14:06:00,
2013-04-06 08:08:00,41.2,29.5,29.69,SE,135,2.9,6.3,63,0.00,,,0.00,WUHU216HW,2013-04-06 14:08:00,
2013-04-06 08:09:00,41.2,29.5,29.69,SSW,203,2.9,6.3,63,0.00,,,0.00,WUHU216HW,2013-04-06 14:09:00,
2013-04-06 08:10:00,41.2,29.5,29.69,SW,225,3.6,6.3,63,0.00,,,0.00,WUHU216HW,2013-04-06 14:10:00,
2013-04-06 08:11:00,41.4,29.7,29.69,SSW,203,3.8,6.3,63,0.00,,,0.00,WUHU216HW,2013-04-06 14:11:00,
2013-04-06 08:13:00,41.4,29.7,29.69,SSE,158,3.6,4.5,63,0.00,,,0.00,WUHU216HW,2013-04-06 14:13:00,
2013-04-06 08:15:00,41.4,29.7,29.69,SE,135,4.5,4.9,63,0.00,,,0.00,WUHU216HW,2013-04-06 14:15:00,
2013-04-06 08:16:00,41.6,29.9,29.69,SSE,158,4.0,4.9,63,0.00,,,0.00,WUHU216HW,2013-04-06 14:16:00,
2013-04-06 08:19:00,41.8,30.1,29.69,SE,135,3.4,4.9,63,0.00,,,0.00,WUHU216HW,2013-04-06 14:19:00,
2013-04-06 08:20:00,41.8,30.1,29.69,SSE,158,2.7,4.9,63,0.00,,,0.00,WUHU216HW,2013-04-06 14:20:00,
2013-04-06 08:21:00,41.9,30.3,29.69,SSE,158,1.1,4.9,63,0.00,,,0.00,WUHU216HW,2013-04-06 14:21:00,
2013-04-06 08:24:00,42.1,30.4,29.69,South,180,3.6,4.9,63,0.00,,,0.00,WUHU216HW,2013-04-06 14:24:00,
2013-04-06 08:25:00,42.1,30.4,29.69,SSE,158,3.4,4.0,63,0.00,,,0.00,WUHU216HW,2013-04-06 14:25:00,
2013-04-06 08:26:00,42.1,30.4,29.69,SSE,158,2.9,4.0,63,0.00,,,0.00,WUHU216HW,2013-04-06 14:26:00,
2013-04-06 08:30:00,42.1,30.4,29.69,SSE,158,2.5,4.0,63,0.00,,,0.00,WUHU216HW,2013-04-06 14:30:00,
2013-04-06 08:31:00,42.3,30.6,29.69,SSE,158,2.9,4.0,63,0.00,,,0.00,WUHU216HW,2013-04-06 14:31:00,
2013-04-06 08:32:00,42.3,30.6,29.69,SSE,158,2.2,4.0,63,0.00,,,0.00,WUHU216HW,2013-04-06 14:32:00,
2013-04-06 08:35:00,42.5,30.7,29.69,SE,135,3.4,4.0,63,0.00,,,0.00,WUHU216HW,2013-04-06 14:35:00,
2013-04-06 08:36:00,42.5,30.7,29.69,SE,135,3.1,4.0,63,0.00,,,0.00,WUHU216HW,2013-04-06 14:36:00,
2013-04-06 08:37:00,42.7,30.9,29.69,SE,135,4.0,4.0,63,0.00,,,0.00,WUHU216HW,2013-04-06 14:37:00,
2013-04-06 08:40:00,42.5,30.3,29.69,SSE,158,2.9,4.0,62,0.00,,,0.00,WUHU216HW,2013-04-06 14:40:00,
2013-04-06 08:41:00,42.7,30.5,29.68,SE,135,2.5,4.0,62,0.00,,,0.00,WUHU216HW,2013-04-06 14:41:00,
2013-04-06 08:43:00,42.8,30.7,29.68,SSE,158,2.0,4.0,62,0.00,,,0.00,WUHU216HW,2013-04-06 14:43:00,
2013-04-06 08:45:00,42.8,30.7,29.68,South,180,2.0,4.0,62,0.00,,,0.00,WUHU216HW,2013-04-06 14:45:00,
2013-04-06 08:47:00,43.0,30.9,29.68,SSE,158,2.5,4.0,62,0.00,,,0.00,WUHU216HW,2013-04-06 14:47:00,
2013-04-06 08:48:00,43.0,30.9,29.68,South,180,3.4,3.4,62,0.00,,,0.00,WUHU216HW,2013-04-06 14:48:00,
2013-04-06 08:50:00,43.2,31.1,29.69,SSW,203,1.8,3.4,62,0.00,,,0.00,WUHU216HW,2013-04-06 14:50:00,
2013-04-06 08:52:00,43.4,31.2,29.69,SSW,203,1.6,3.4,62,0.00,,,0.00,WUHU216HW,2013-04-06 14:52:00,
2013-04-06 08:53:00,43.6,31.4,29.68,SSE,158,0.7,3.4,62,0.00,,,0.00,WUHU216HW,2013-04-06 14:53:00,
2013-04-06 08:55:00,43.7,31.1,29.68,SSW,203,1.8,3.4,61,0.00,,,0.00,WUHU216HW,2013-04-06 14:55:00,
2013-04-06 08:57:00,43.9,31.3,29.68,SSW,203,0.7,3.4,61,0.00,,,0.00,WUHU216HW,2013-04-06 14:57:00,
2013-04-06 08:59:00,44.1,31.5,29.68,SSW,203,0.4,2.9,61,0.00,,,0.00,WUHU216HW,2013-04-06 14:59:00,
2013-04-06 09:00:00,44.3,31.3,29.68,SSE,158,0.4,2.9,60,0.00,,,0.00,WUHU216HW,2013-04-06 15:00:00,
2013-04-06 09:02:00,44.5,31.5,29.68,SE,135,0.9,2.0,60,0.00,,,0.00,WUHU216HW,2013-04-06 15:02:00,
2013-04-06 09:04:00,44.5,31.5,29.68,ENE,68,1.8,2.0,60,0.00,,,0.00,WUHU216HW,2013-04-06 15:04:00,
2013-04-06 09:05:00,44.6,31.2,29.68,East,90,1.8,1.8,59,0.00,,,0.00,WUHU216HW,2013-04-06 15:05:00,
2013-04-06 09:07:00,44.6,31.2,29.68,ESE,113,2.9,3.8,59,0.00,,,0.00,WUHU216HW,2013-04-06 15:07:00,
2013-04-06 09:09:00,44.8,31.4,29.68,ENE,68,4.0,4.0,59,0.00,,,0.00,WUHU216HW,2013-04-06 15:09:00,
2013-04-06 09:11:00,44.8,31.4,29.68,East,90,3.1,4.0,59,0.00,,,0.00,WUHU216HW,2013-04-06 15:11:00,
2013-04-06 09:12:00,44.8,31.9,29.68,NE,45,4.0,4.0,60,0.00,,,0.00,WUHU216HW,2013-04-06 15:12:00,
2013-04-06 09:15:00,44.6,31.7,29.68,ENE,68,2.9,4.0,60,0.00,,,0.00,WUHU216HW,2013-04-06 15:15:00,
2013-04-06 09:16:00,44.6,31.7,29.68,East,90,3.8,4.0,60,0.00,,,0.00,WUHU216HW,2013-04-06 15:16:00,
2013-04-06 09:17:00,44.6,31.7,29.68,East,90,1.6,4.0,60,0.00,,,0.00,WUHU216HW,2013-04-06 15:17:00,
2013-04-06 09:18:00,44.8,31.9,29.68,East,90,3.4,4.0,60,0.00,,,0.00,WUHU216HW,2013-04-06 15:18:00,
2013-04-06 09:20:00,44.8,31.9,29.68,East,90,4.0,4.0,60,0.00,,,0.00,WUHU216HW,2013-04-06 15:20:00,
2013-04-06 09:22:00,45.0,32.1,29.68,ENE,68,3.1,4.3,60,0.00,,,0.00,WUHU216HW,2013-04-06 15:22:00,
2013-04-06 09:23:00,45.0,31.6,29.68,ENE,68,1.6,4.3,59,0.00,,,0.00,WUHU216HW,2013-04-06 15:23:00,
2013-04-06 09:25:00,45.0,31.6,29.68,East,90,4.5,4.5,59,0.00,,,0.00,WUHU216HW,2013-04-06 15:25:00,
2013-04-06 09:27:00,45.4,31.9,29.68,East,90,3.4,4.5,59,0.00,,,0.00,WUHU216HW,2013-04-06 15:27:00,
2013-04-06 09:29:00,45.4,31.9,29.68,East,90,4.0,4.5,59,0.00,,,0.00,WUHU216HW,2013-04-06 15:29:00,
2013-04-06 09:30:00,45.5,32.0,29.68,ESE,113,4.7,5.1,59,0.00,,,0.00,WUHU216HW,2013-04-06 15:30:00,
2013-04-06 09:32:00,45.7,31.8,29.68,ESE,113,2.9,5.1,58,0.00,,,0.00,WUHU216HW,2013-04-06 15:32:00,
2013-04-06 09:33:00,45.7,31.8,29.68,ESE,113,2.9,5.1,58,0.00,,,0.00,WUHU216HW,2013-04-06 15:33:00,
2013-04-06 09:34:00,45.7,31.8,29.68,SE,135,2.2,5.1,58,0.00,,,0.00,WUHU216HW,2013-04-06 15:34:00,
2013-04-06 09:35:00,45.7,31.3,29.68,SE,135,2.7,5.1,57,0.00,,,0.00,WUHU216HW,2013-04-06 15:35:00,
2013-04-06 09:37:00,45.9,31.5,29.68,ESE,113,3.1,5.1,57,0.00,,,0.00,WUHU216HW,2013-04-06 15:37:00,
2013-04-06 09:38:00,45.9,31.5,29.68,ESE,113,3.8,5.1,57,0.00,,,0.00,WUHU216HW,2013-04-06 15:38:00,
2013-04-06 09:39:00,46.1,31.6,29.68,ESE,113,3.4,5.1,57,0.00,,,0.00,WUHU216HW,2013-04-06 15:39:00,
2013-04-06 09:40:00,46.1,31.6,29.68,ESE,113,2.7,4.7,57,0.00,,,0.00,WUHU216HW,2013-04-06 15:40:00,
2013-04-06 09:42:00,46.3,31.8,29.68,ESE,113,2.5,3.8,57,0.00,,,0.00,WUHU216HW,2013-04-06 15:42:00,
2013-04-06 09:43:00,46.4,32.0,29.68,East,90,1.8,3.8,57,0.00,,,0.00,WUHU216HW,2013-04-06 15:43:00,
2013-04-06 09:45:00,46.4,32.0,29.68,East,90,4.0,4.5,57,0.00,,,0.00,WUHU216HW,2013-04-06 15:45:00,
2013-04-06 09:48:00,46.6,32.1,29.68,SE,135,3.4,4.5,57,0.00,,,0.00,WUHU216HW,2013-04-06 15:48:00,
2013-04-06 09:50:00,46.8,31.9,29.68,SE,135,2.9,4.5,56,0.00,,,0.00,WUHU216HW,2013-04-06 15:50:00,
2013-04-06 09:53:00,47.2,32.2,29.68,ESE,113,2.5,4.5,56,0.00,,,0.00,WUHU216HW,2013-04-06 15:53:00,
2013-04-06 09:55:00,47.2,32.2,29.68,East,90,3.1,4.0,56,0.00,,,0.00,WUHU216HW,2013-04-06 15:55:00,
2013-04-06 09:58:00,47.5,32.0,29.67,ESE,113,3.1,3.8,55,0.00,,,0.00,WUHU216HW,2013-04-06 15:58:00,
2013-04-06 10:00:00,47.7,32.2,29.68,SE,135,0.7,4.0,55,0.00,,,0.00,WUHU216HW,2013-04-06 16:00:00,
2013-04-06 10:03:00,47.9,32.4,29.68,ESE,113,2.5,4.0,55,0.00,,,0.00,WUHU216HW,2013-04-06 16:03:00,
2013-04-06 10:04:00,47.9,32.0,29.68,East,90,2.2,4.0,54,0.00,,,0.00,WUHU216HW,2013-04-06 16:04:00,
2013-04-06 10:05:00,48.2,32.3,29.68,NE,45,1.1,4.0,54,0.00,,,0.00,WUHU216HW,2013-04-06 16:05:00,
2013-04-06 10:08:00,48.2,32.3,29.68,ESE,113,2.0,4.0,54,0.00,,,0.00,WUHU216HW,2013-04-06 16:08:00,
2013-04-06 10:10:00,48.2,32.3,29.67,ESE,113,1.6,2.7,54,0.00,,,0.00,WUHU216HW,2013-04-06 16:10:00,
2013-04-06 10:11:00,48.4,32.5,29.68,ESE,113,1.1,2.7,54,0.00,,,0.00,WUHU216HW,2013-04-06 16:11:00,
2013-04-06 10:13:00,48.6,32.7,29.68,ESE,113,0.2,2.7,54,0.00,,,0.00,WUHU216HW,2013-04-06 16:13:00,
2013-04-06 10:15:00,49.0,32.5,29.68,ESE,113,2.5,2.7,53,0.00,,,0.00,WUHU216HW,2013-04-06 16:15:00,
2013-04-06 10:16:00,49.0,32.9,29.68,East,90,0.4,2.7,54,0.00,,,0.00,WUHU216HW,2013-04-06 16:16:00,
2013-04-06 10:18:00,49.1,32.7,29.67,East,90,3.6,3.8,53,0.00,,,0.00,WUHU216HW,2013-04-06 16:18:00,
2013-04-06 10:19:00,49.3,32.9,29.68,ESE,113,3.4,3.8,53,0.00,,,0.00,WUHU216HW,2013-04-06 16:19:00,
2013-04-06 10:20:00,49.3,32.4,29.68,ENE,68,2.2,3.8,52,0.00,,,0.00,WUHU216HW,2013-04-06 16:20:00,
2013-04-06 10:21:00,49.3,32.4,29.68,ENE,68,0.0,3.8,52,0.00,,,0.00,WUHU216HW,2013-04-06 16:21:00,
2013-04-06 10:23:00,49.3,32.4,29.68,North,0,0.7,3.8,52,0.00,,,0.00,WUHU216HW,2013-04-06 16:23:00,
2013-04-06 10:24:00,49.3,32.4,29.68,East,90,1.1,3.8,52,0.00,,,0.00,WUHU216HW,2013-04-06 16:24:00,
2013-04-06 10:25:00,49.3,32.4,29.68,SE,135,1.3,3.8,52,0.00,,,0.00,WUHU216HW,2013-04-06 16:25:00,
2013-04-06 10:27:00,49.5,32.6,29.68,East,90,1.8,3.8,52,0.00,,,0.00,WUHU216HW,2013-04-06 16:27:00,
2013-04-06 10:28:00,49.5,32.6,29.67,East,90,2.5,3.6,52,0.00,,,0.00,WUHU216HW,2013-04-06 16:28:00,
2013-04-06 10:30:00,49.5,32.1,29.67,ESE,113,2.5,3.8,51,0.00,,,0.00,WUHU216HW,2013-04-06 16:30:00,
2013-04-06 10:31:00,49.5,32.1,29.67,East,90,3.8,5.4,51,0.00,,,0.00,WUHU216HW,2013-04-06 16:31:00,
2013-04-06 10:32:00,49.5,32.6,29.68,East,90,4.0,5.4,52,0.00,,,0.00,WUHU216HW,2013-04-06 16:32:00,
2013-04-06 10:33:00,49.7,32.3,29.67,ESE,113,5.8,5.8,51,0.00,,,0.00,WUHU216HW,2013-04-06 16:33:00,
2013-04-06 10:35:00,49.7,32.8,29.68,ESE,113,2.5,5.8,52,0.00,,,0.00,WUHU216HW,2013-04-06 16:35:00,
2013-04-06 10:37:00,49.9,32.5,29.67,ESE,113,2.5,5.8,51,0.00,,,0.00,WUHU216HW,2013-04-06 16:37:00,
2013-04-06 10:38:00,50.0,32.7,29.67,SE,135,2.5,5.8,51,0.00,,,0.00,WUHU216HW,2013-04-06 16:38:00,
2013-04-06 10:40:00,50.0,32.7,29.68,SE,135,1.3,5.8,51,0.00,,,0.00,WUHU216HW,2013-04-06 16:40:00,
2013-04-06 10:42:00,50.4,33.0,29.67,SE,135,2.2,5.8,51,0.00,,,0.00,WUHU216HW,2013-04-06 16:42:00,
2013-04-06 10:43:00,50.4,33.0,29.67,SE,135,2.5,5.8,51,0.00,,,0.00,WUHU216HW,2013-04-06 16:43:00,
2013-04-06 10:45:00,50.6,33.1,29.68,ESE,113,1.3,3.4,51,0.00,,,0.00,WUHU216HW,2013-04-06 16:45:00,
2013-04-06 10:47:00,50.8,32.9,29.68,East,90,1.1,2.7,50,0.00,,,0.00,WUHU216HW,2013-04-06 16:47:00,
2013-04-06 10:48:00,50.8,32.9,29.68,East,90,0.9,2.7,50,0.00,,,0.00,WUHU216HW,2013-04-06 16:48:00,
2013-04-06 10:50:00,50.8,32.9,29.68,SE,135,0.0,2.7,50,0.00,,,0.00,WUHU216HW,2013-04-06 16:50:00,
2013-04-06 10:52:00,50.9,33.0,29.68,East,90,2.9,2.9,50,0.00,,,0.00,WUHU216HW,2013-04-06 16:52:00,
2013-04-06 10:54:00,51.1,33.2,29.68,ESE,113,3.8,3.8,50,0.00,,,0.00,WUHU216HW,2013-04-06 16:54:00,
2013-04-06 10:55:00,51.5,32.4,29.68,NE,45,2.7,4.0,48,0.00,,,0.00,WUHU216HW,2013-04-06 16:55:00,
2013-04-06 10:58:00,52.0,34.0,29.68,ESE,113,2.0,4.0,50,0.00,,,0.00,WUHU216HW,2013-04-06 16:58:00,
2013-04-06 11:00:00,52.6,34.5,29.67,South,180,0.9,4.0,50,0.00,,,0.00,WUHU216HW,2013-04-06 17:00:00,
2013-04-06 11:01:00,52.7,34.7,29.67,SSW,203,1.8,4.0,50,0.00,,,0.00,WUHU216HW,2013-04-06 17:01:00,
2013-04-06 11:02:00,53.3,34.0,29.67,East,90,2.5,4.0,48,0.00,,,0.00,WUHU216HW,2013-04-06 17:02:00,
2013-04-06 11:05:00,54.4,33.8,29.67,SE,135,3.1,5.4,46,0.00,,,0.00,WUHU216HW,2013-04-06 17:05:00,
2013-04-06 11:07:00,54.4,33.8,29.67,East,90,1.8,5.4,46,0.00,,,0.00,WUHU216HW,2013-04-06 17:07:00,
2013-04-06 11:08:00,54.7,33.1,29.67,East,90,6.7,7.6,44,0.00,,,0.00,WUHU216HW,2013-04-06 17:08:00,
2013-04-06 11:10:00,55.1,33.9,29.67,SE,135,1.6,7.6,45,0.00,,,0.00,WUHU216HW,2013-04-06 17:10:00,
2013-04-06 11:12:00,55.3,33.0,29.67,East,90,1.6,7.6,43,0.00,,,0.00,WUHU216HW,2013-04-06 17:12:00,
2013-04-06 11:13:00,55.4,33.2,29.67,ENE,68,6.3,7.6,43,0.00,,,0.00,WUHU216HW,2013-04-06 17:13:00,
2013-04-06 11:15:00,55.6,33.9,29.67,SSW,203,1.1,7.6,44,0.00,,,0.00,WUHU216HW,2013-04-06 17:15:00,
2013-04-06 11:17:00,55.6,32.2,29.67,NNE,23,5.8,7.6,41,0.00,,,0.00,WUHU216HW,2013-04-06 17:17:00,
2013-04-06 11:18:00,55.4,32.0,29.67,ESE,113,7.4,7.6,41,0.00,,,0.00,WUHU216HW,2013-04-06 17:18:00,
2013-04-06 11:21:00,55.1,31.8,29.67,East,90,7.6,8.7,41,0.00,,,0.00,WUHU216HW,2013-04-06 17:21:00,
2013-04-06 11:22:00,54.7,32.0,29.66,ENE,68,11.0,11.0,42,0.00,,,0.00,WUHU216HW,2013-04-06 17:22:00,
2013-04-06 11:24:00,54.2,31.5,29.66,ENE,68,8.3,11.0,42,0.00,,,0.00,WUHU216HW,2013-04-06 17:24:00,
2013-04-06 11:26:00,54.0,31.9,29.66,ENE,68,11.4,11.4,43,0.00,,,0.00,WUHU216HW,2013-04-06 17:26:00,
2013-04-06 11:27:00,54.0,31.9,29.66,ENE,68,7.8,11.4,43,0.00,,,0.00,WUHU216HW,2013-04-06 17:27:00,
2013-04-06 11:28:00,54.0,31.9,29.66,ENE,68,8.1,11.4,43,0.00,,,0.00,WUHU216HW,2013-04-06 17:28:00,
2013-04-06 11:30:00,54.0,31.3,29.66,East,90,8.1,11.4,42,0.00,,,0.00,WUHU216HW,2013-04-06 17:30:00,
2013-04-06 11:31:00,54.2,32.0,29.66,East,90,8.5,11.4,43,0.00,,,0.00,WUHU216HW,2013-04-06 17:31:00,
2013-04-06 11:33:00,54.5,31.2,29.66,NNE,23,5.1,11.4,41,0.00,,,0.00,WUHU216HW,2013-04-06 17:33:00,
2013-04-06 11:35:00,54.9,31.6,29.66,NE,45,7.6,11.4,41,0.00,,,0.00,WUHU216HW,2013-04-06 17:35:00,
2013-04-06 11:37:00,54.7,31.4,29.66,NNE,23,6.9,9.2,41,0.00,,,0.00,WUHU216HW,2013-04-06 17:37:00,
2013-04-06 11:38:00,54.7,30.9,29.66,NNE,23,6.9,9.2,40,0.00,,,0.00,WUHU216HW,2013-04-06 17:38:00,
2013-04-06 11:40:00,54.7,31.4,29.66,West,270,1.3,9.2,41,0.00,,,0.00,WUHU216HW,2013-04-06 17:40:00,
2013-04-06 11:42:00,54.7,31.4,29.66,West,270,4.7,9.2,41,0.00,,,0.00,WUHU216HW,2013-04-06 17:42:00,
2013-04-06 11:43:00,54.7,31.4,29.66,NNW,338,6.9,9.2,41,0.00,,,0.00,WUHU216HW,2013-04-06 17:43:00,
2013-04-06 11:44:00,54.5,31.2,29.66,NNW,338,4.9,9.2,41,0.00,,,0.00,WUHU216HW,2013-04-06 17:44:00,
2013-04-06 11:45:00,54.5,31.2,29.66,NNW,338,5.6,7.6,41,0.00,,,0.00,WUHU216HW,2013-04-06 17:45:00,
2013-04-06 11:47:00,54.4,31.1,29.66,North,0,5.6,7.8,41,0.00,,,0.00,WUHU216HW,2013-04-06 17:47:00,
2013-04-06 11:48:00,54.2,31.0,29.66,North,0,10.1,10.1,41,0.00,,,0.00,WUHU216HW,2013-04-06 17:48:00,
2013-04-06 11:50:00,54.0,30.3,29.66,North,0,3.6,13.9,40,0.00,,,0.00,WUHU216HW,2013-04-06 17:50:00,
2013-04-06 11:52:00,53.8,30.6,29.66,NE,45,5.6,13.9,41,0.00,,,0.00,WUHU216HW,2013-04-06 17:52:00,
2013-04-06 11:53:00,54.0,30.8,29.66,NNE,23,5.4,13.9,41,0.00,,,0.00,WUHU216HW,2013-04-06 17:53:00,
2013-04-06 11:55:00,54.2,30.3,29.66,NE,45,8.7,13.9,40,0.00,,,0.00,WUHU216HW,2013-04-06 17:55:00,
2013-04-06 11:57:00,54.2,30.3,29.66,NE,45,8.7,13.9,40,0.00,,,0.00,WUHU216HW,2013-04-06 17:57:00,
2013-04-06 11:59:00,54.4,30.5,29.66,NE,45,8.7,13.9,40,0.00,,,0.00,WUHU216HW,2013-04-06 17:59:00,
2013-04-06 12:01:00,54.4,30.5,29.66,North,0,0.0,8.7,40,0.00,,,0.00,WUHU216HW,2013-04-06 18:01:00,
2013-04-06 12:02:00,54.4,30.5,29.66,North,0,0.0,8.7,40,0.00,,,0.00,WUHU216HW,2013-04-06 18:02:00,
2013-04-06 12:05:00,54.4,29.9,29.66,North,0,0.0,8.7,39,0.00,,,0.00,WUHU216HW,2013-04-06 18:05:00,
2013-04-06 12:06:00,54.5,30.0,29.66,North,0,0.0,8.7,39,0.00,,,0.00,WUHU216HW,2013-04-06 18:06:00,
2013-04-06 12:07:00,54.7,30.2,29.66,North,0,0.0,8.7,39,0.00,,,0.00,WUHU216HW,2013-04-06 18:07:00,
2013-04-06 12:10:00,54.9,28.9,29.66,North,0,0.0,0.0,37,0.00,,,0.00,WUHU216HW,2013-04-06 18:10:00,
2013-04-06 12:11:00,54.9,28.9,29.66,North,0,0.0,0.0,37,0.00,,,0.00,WUHU216HW,2013-04-06 18:11:00,
2013-04-06 12:12:00,54.9,28.9,29.66,West,270,11.4,11.4,37,0.00,,,0.00,WUHU216HW,2013-04-06 18:12:00,
2013-04-06 12:15:00,55.1,29.8,29.66,West,270,4.5,11.4,38,0.00,,,0.00,WUHU216HW,2013-04-06 18:15:00,
2013-04-06 12:17:00,55.3,30.0,29.66,West,270,4.5,11.4,38,0.00,,,0.00,WUHU216HW,2013-04-06 18:17:00,
2013-04-06 12:18:00,55.3,30.0,29.66,WNW,293,3.4,11.4,38,0.00,,,0.00,WUHU216HW,2013-04-06 18:18:00,
2013-04-06 12:21:00,55.4,30.1,29.66,WNW,293,3.4,11.4,38,0.00,,,0.00,WUHU216HW,2013-04-06 18:21:00,
2013-04-06 12:22:00,55.4,30.1,29.66,WNW,293,3.4,11.4,38,0.00,,,0.00,WUHU216HW,2013-04-06 18:22:00,
2013-04-06 12:23:00,55.3,30.0,29.66,WNW,293,3.4,11.4,38,0.00,,,0.00,WUHU216HW,2013-04-06 18:23:00,
2013-04-06 12:27:00,55.1,29.1,29.66,North,0,0.0,4.5,37,0.00,,,0.00,WUHU216HW,2013-04-06 18:27:00,
2013-04-06 12:28:00,55.1,29.8,29.66,North,0,0.0,3.4,38,0.00,,,0.00,WUHU216HW,2013-04-06 18:28:00,
2013-04-06 12:32:00,54.0,33.0,29.66,North,0,0.0,3.4,45,0.00,,,0.00,WUHU216HW,2013-04-06 18:32:00,
2013-04-06 12:33:00,53.5,33.0,29.66,North,0,0.0,3.4,46,0.00,,,0.00,WUHU216HW,2013-04-06 18:33:00,
2013-04-06 12:37:00,52.7,32.9,29.66,North,0,13.0,13.0,47,0.00,,,0.00,WUHU216HW,2013-04-06 18:37:00,
2013-04-06 12:38:00,52.9,33.1,29.66,North,0,13.0,13.0,47,0.00,,,0.00,WUHU216HW,2013-04-06 18:38:00,
2013-04-06 12:42:00,52.9,32.6,29.66,NNW,338,7.6,13.0,46,0.00,,,0.00,WUHU216HW,2013-04-06 18:42:00,
2013-04-06 12:43:00,52.7,32.4,29.66,NNW,338,7.6,13.0,46,0.00,,,0.00,WUHU216HW,2013-04-06 18:43:00,
2013-04-06 12:44:00,52.7,32.9,29.66,NNW,338,7.6,13.0,47,0.00,,,0.00,WUHU216HW,2013-04-06 18:44:00,
2013-04-06 12:47:00,52.9,33.1,29.66,North,0,0.0,13.0,47,0.00,,,0.00,WUHU216HW,2013-04-06 18:47:00,
2013-04-06 12:48:00,52.9,33.1,29.66,North,0,0.0,13.0,47,0.00,,,0.00,WUHU216HW,2013-04-06 18:48:00,
2013-04-06 12:49:00,52.9,33.1,29.66,North,0,0.0,13.0,47,0.00,,,0.00,WUHU216HW,2013-04-06 18:49:00,
2013-04-06 12:53:00,52.9,33.7,29.66,North,0,0.0,7.6,48,0.00,,,0.00,WUHU216HW,2013-04-06 18:53:00,
2013-04-06 12:54:00,52.7,34.1,29.66,North,0,0.0,0.0,49,0.00,,,0.00,WUHU216HW,2013-04-06 18:54:00,
2013-04-06 12:58:00,52.4,33.2,29.66,North,0,0.0,0.0,48,0.00,,,0.00,WUHU216HW,2013-04-06 18:58:00,
2013-04-06 12:59:00,52.0,33.5,29.66,North,0,0.0,0.0,49,0.00,,,0.00,WUHU216HW,2013-04-06 18:59:00,
2013-04-06 13:00:00,52.0,33.5,29.66,North,0,0.0,0.0,49,0.00,,,0.00,WUHU216HW,2013-04-06 19:00:00,
2013-04-06 13:03:00,51.8,33.8,29.66,North,0,0.0,0.0,50,0.00,,,0.00,WUHU216HW,2013-04-06 19:03:00,
2013-04-06 13:04:00,51.7,34.1,29.66,North,0,0.0,0.0,51,0.00,,,0.00,WUHU216HW,2013-04-06 19:04:00,
2013-04-06 13:05:00,51.7,33.7,29.66,North,0,0.0,0.0,50,0.00,,,0.00,WUHU216HW,2013-04-06 19:05:00,
2013-04-06 13:08:00,51.3,33.9,29.66,North,0,0.0,0.0,51,0.00,,,0.00,WUHU216HW,2013-04-06 19:08:00,
2013-04-06 13:10:00,51.3,34.3,29.66,North,0,0.0,0.0,52,0.00,,,0.00,WUHU216HW,2013-04-06 19:10:00,
2013-04-06 13:11:00,51.3,34.3,29.66,North,0,0.0,0.0,52,0.00,,,0.00,WUHU216HW,2013-04-06 19:11:00,
2013-04-06 13:13:00,50.8,34.2,29.66,North,0,0.0,0.0,53,0.00,,,0.00,WUHU216HW,2013-04-06 19:13:00,
2013-04-06 13:15:00,50.4,34.8,29.66,North,0,0.0,0.0,55,0.00,,,0.00,WUHU216HW,2013-04-06 19:15:00,
2013-04-06 13:16:00,50.2,35.1,29.66,North,0,0.0,0.0,56,0.00,,,0.00,WUHU216HW,2013-04-06 19:16:00,
2013-04-06 13:18:00,50.0,34.9,29.66,North,0,0.0,0.0,56,0.00,,,0.00,WUHU216HW,2013-04-06 19:18:00,
2013-04-06 13:20:00,49.7,35.0,29.66,North,0,0.0,0.0,57,0.00,,,0.00,WUHU216HW,2013-04-06 19:20:00,
2013-04-06 13:21:00,49.3,34.2,29.66,North,0,0.0,0.0,56,0.00,,,0.00,WUHU216HW,2013-04-06 19:21:00,
2013-04-06 13:23:00,49.3,34.8,29.67,North,0,0.0,0.0,57,0.00,,,0.00,WUHU216HW,2013-04-06 19:23:00,
2013-04-06 13:25:00,49.0,34.8,29.67,North,0,0.0,0.0,58,0.00,,,0.00,WUHU216HW,2013-04-06 19:25:00,
2013-04-06 13:27:00,48.6,35.5,29.67,North,0,0.0,0.0,60,0.00,,,0.00,WUHU216HW,2013-04-06 19:27:00,
2013-04-06 13:28:00,48.4,35.6,29.67,North,0,0.0,0.0,61,0.00,,,0.00,WUHU216HW,2013-04-06 19:28:00,
2013-04-06 13:32:00,47.5,37.9,29.67,North,0,0.0,0.0,69,0.00,,,0.00,WUHU216HW,2013-04-06 19:32:00,
2013-04-06 13:33:00,47.2,38.3,29.68,North,0,0.0,0.0,71,0.00,,,0.00,WUHU216HW,2013-04-06 19:33:00,
2013-04-06 13:37:00,46.1,37.6,29.67,North,0,0.0,0.0,72,0.00,,,0.00,WUHU216HW,2013-04-06 19:37:00,
2013-04-06 13:38:00,46.1,37.6,29.67,North,0,0.0,0.0,72,0.00,,,0.00,WUHU216HW,2013-04-06 19:38:00,
2013-04-06 13:39:00,46.1,37.6,29.67,North,0,0.0,0.0,72,0.00,,,0.00,WUHU216HW,2013-04-06 19:39:00,
2013-04-06 13:42:00,46.1,37.6,29.67,North,0,0.0,0.0,72,0.01,,,0.01,WUHU216HW,2013-04-06 19:42:00,
2013-04-06 13:43:00,46.1,37.6,29.68,North,0,0.0,0.0,72,0.01,,,0.01,WUHU216HW,2013-04-06 19:43:00,
2013-04-06 13:44:00,46.3,38.1,29.68,North,0,0.0,0.0,73,0.01,,,0.01,WUHU216HW,2013-04-06 19:44:00,
2013-04-06 13:45:00,46.3,38.4,29.68,North,0,0.0,0.0,74,0.01,,,0.01,WUHU216HW,2013-04-06 19:45:00,
2013-04-06 13:47:00,46.3,37.8,29.68,North,0,0.0,0.0,72,0.01,,,0.01,WUHU216HW,2013-04-06 19:47:00,
2013-04-06 13:48:00,46.3,37.8,29.67,North,0,0.0,0.0,72,0.01,,,0.01,WUHU216HW,2013-04-06 19:48:00,
2013-04-06 13:49:00,46.3,37.8,29.67,North,0,0.0,0.0,72,0.01,,,0.01,WUHU216HW,2013-04-06 19:49:00,
2013-04-06 13:50:00,46.3,37.8,29.67,North,0,0.0,0.0,72,0.01,,,0.01,WUHU216HW,2013-04-06 19:50:00,
2013-04-06 13:53:00,46.1,36.9,29.67,North,0,0.0,0.0,70,0.01,,,0.01,WUHU216HW,2013-04-06 19:53:00,
2013-04-06 13:54:00,45.9,37.1,29.67,North,0,0.0,0.0,71,0.01,,,0.01,WUHU216HW,2013-04-06 19:54:00,
2013-04-06 13:55:00,45.7,37.3,29.67,North,0,0.0,0.0,72,0.01,,,0.01,WUHU216HW,2013-04-06 19:55:00,
2013-04-06 13:58:00,45.7,36.5,29.66,North,0,0.0,0.0,70,0.02,,,0.02,WUHU216HW,2013-04-06 19:58:00,
2013-04-06 14:00:00,45.7,37.3,29.66,North,0,0.0,0.0,72,0.02,,,0.02,WUHU216HW,2013-04-06 20:00:00,
2013-04-06 14:01:00,45.9,37.5,29.66,NW,315,3.6,4.7,72,0.02,,,0.02,WUHU216HW,2013-04-06 20:01:00,
2013-04-06 14:03:00,46.4,38.0,29.66,NNW,338,4.5,4.7,72,0.02,,,0.02,WUHU216HW,2013-04-06 20:03:00,
2013-04-06 14:05:00,46.6,38.1,29.66,WNW,293,4.5,4.7,72,0.02,,,0.02,WUHU216HW,2013-04-06 20:05:00,
2013-04-06 14:07:00,47.0,38.4,29.66,West,270,6.3,6.3,72,0.02,,,0.02,WUHU216HW,2013-04-06 20:07:00,
2013-04-06 14:08:00,47.2,38.3,29.66,West,270,6.3,6.9,71,0.02,,,0.02,WUHU216HW,2013-04-06 20:08:00,
2013-04-06 14:09:00,47.0,37.7,29.66,West,270,7.6,7.6,70,0.02,,,0.02,WUHU216HW,2013-04-06 20:09:00,
2013-04-06 14:10:00,47.2,37.5,29.66,WNW,293,5.6,7.6,69,0.02,,,0.02,WUHU216HW,2013-04-06 20:10:00,
2013-04-06 14:12:00,47.5,38.9,29.66,West,270,9.8,9.8,72,0.02,,,0.02,WUHU216HW,2013-04-06 20:12:00,
2013-04-06 14:14:00,47.7,37.6,29.66,WSW,248,6.5,9.8,68,0.02,,,0.02,WUHU216HW,2013-04-06 20:14:00,
2013-04-06 14:15:00,47.7,38.0,29.66,WSW,248,10.3,10.3,69,0.02,,,0.02,WUHU216HW,2013-04-06 20:15:00,
2013-04-06 14:17:00,47.9,37.8,29.66,West,270,6.7,10.3,68,0.02,,,0.02,WUHU216HW,2013-04-06 20:17:00,
2013-04-06 14:19:00,47.7,37.6,29.65,West,270,5.8,10.3,68,0.02,,,0.02,WUHU216HW,2013-04-06 20:19:00,
2013-04-06 14:20:00,47.7,37.3,29.65,WNW,293,3.8,10.3,67,0.02,,,0.02,WUHU216HW,2013-04-06 20:20:00,
2013-04-06 14:23:00,47.7,37.6,29.65,NNW,338,4.0,10.3,68,0.02,,,0.02,WUHU216HW,2013-04-06 20:23:00,
2013-04-06 14:24:00,47.7,36.5,29.65,NNW,338,4.9,10.3,65,0.02,,,0.02,WUHU216HW,2013-04-06 20:24:00,
2013-04-06 14:25:00,47.9,36.3,29.64,North,0,5.4,9.2,64,0.02,,,0.02,WUHU216HW,2013-04-06 20:25:00,
2013-04-06 14:26:00,47.9,36.3,29.64,NNW,338,5.4,9.2,64,0.02,,,0.02,WUHU216HW,2013-04-06 20:26:00,
2013-04-06 14:28:00,48.1,36.8,29.65,NNW,338,6.0,6.7,65,0.02,,,0.02,WUHU216HW,2013-04-06 20:28:00,
2013-04-06 14:30:00,48.2,37.4,29.65,NNW,338,4.0,6.0,66,0.02,,,0.02,WUHU216HW,2013-04-06 20:30:00,
2013-04-06 14:31:00,48.4,37.2,29.65,North,0,4.3,6.0,65,0.02,,,0.02,WUHU216HW,2013-04-06 20:31:00,
2013-04-06 14:33:00,48.4,37.5,29.65,North,0,5.6,6.0,66,0.02,,,0.02,WUHU216HW,2013-04-06 20:33:00,
2013-04-06 14:35:00,48.4,38.4,29.65,NNW,338,5.6,6.0,68,0.02,,,0.02,WUHU216HW,2013-04-06 20:35:00,
2013-04-06 14:36:00,48.4,37.9,29.65,NNW,338,7.6,7.6,67,0.02,,,0.02,WUHU216HW,2013-04-06 20:36:00,
2013-04-06 14:38:00,48.8,38.6,29.64,NNW,338,6.3,7.6,68,0.02,,,0.02,WUHU216HW,2013-04-06 20:38:00,
2013-04-06 14:40:00,49.1,38.6,29.65,NW,315,7.4,7.6,67,0.01,,,0.02,WUHU216HW,2013-04-06 20:40:00,
2013-04-06 14:41:00,49.3,38.8,29.65,NW,315,6.3,7.6,67,0.01,,,0.02,WUHU216HW,2013-04-06 20:41:00,
2013-04-06 14:43:00,49.3,37.6,29.64,NW,315,5.1,7.6,64,0.01,,,0.02,WUHU216HW,2013-04-06 20:43:00,
2013-04-06 14:45:00,49.5,37.8,29.64,NW,315,7.6,7.6,64,0.01,,,0.02,WUHU216HW,2013-04-06 20:45:00,
2013-04-06 14:46:00,49.7,37.2,29.64,NW,315,7.6,8.3,62,0.01,,,0.02,WUHU216HW,2013-04-06 20:46:00,
2013-04-06 14:48:00,49.9,36.5,29.64,NNW,338,7.2,9.2,60,0.01,,,0.02,WUHU216HW,2013-04-06 20:48:00,
2013-04-06 14:51:00,50.2,36.5,29.65,WNW,293,17.9,17.9,59,0.01,,,0.02,WUHU216HW,2013-04-06 20:51:00,
2013-04-06 14:52:00,50.0,35.8,29.65,WNW,293,15.0,17.9,58,0.01,,,0.02,WUHU216HW,2013-04-06 20:52:00,
2013-04-06 14:54:00,49.9,35.2,29.64,WNW,293,21.5,21.5,57,0.01,,,0.02,WUHU216HW,2013-04-06 20:54:00,
2013-04-06 14:57:00,49.1,35.9,29.64,WNW,293,17.2,21.7,60,0.00,,,0.02,WUHU216HW,2013-04-06 20:57:00,
2013-04-06 14:58:00,49.0,35.3,29.65,NW,315,19.7,21.7,59,0.00,,,0.02,WUHU216HW,2013-04-06 20:58:00,
2013-04-06 14:59:00,49.0,35.7,29.65,NW,315,20.6,21.7,60,0.00,,,0.02,WUHU216HW,2013-04-06 20:59:00,
2013-04-06 15:02:00,48.6,36.5,29.65,WNW,293,17.2,21.7,63,0.00,,,0.02,WUHU216HW,2013-04-06 21:02:00,
2013-04-06 15:04:00,47.9,36.6,29.66,WNW,293,18.6,21.7,65,0.00,,,0.02,WUHU216HW,2013-04-06 21:04:00,
2013-04-06 15:08:00,47.0,36.5,29.66,WNW,293,16.3,20.6,67,0.00,,,0.02,WUHU216HW,2013-04-06 21:08:00,
2013-04-06 15:09:00,46.6,36.6,29.66,West,270,11.6,19.9,68,0.00,,,0.02,WUHU216HW,2013-04-06 21:09:00,
2013-04-06 15:13:00,46.3,35.9,29.66,WNW,293,10.5,18.6,67,0.00,,,0.02,WUHU216HW,2013-04-06 21:13:00,
2013-04-06 15:15:00,46.3,36.3,29.66,WSW,248,11.0,18.6,68,0.00,,,0.02,WUHU216HW,2013-04-06 21:15:00,
2013-04-06 15:18:00,46.3,35.5,29.67,NW,315,11.9,18.1,66,0.00,,,0.02,WUHU216HW,2013-04-06 21:18:00,
2013-04-06 15:19:00,46.3,35.9,29.66,West,270,7.6,15.0,67,0.00,,,0.02,WUHU216HW,2013-04-06 21:19:00,
2013-04-06 15:20:00,46.4,36.1,29.66,NW,315,6.5,14.5,67,0.00,,,0.02,WUHU216HW,2013-04-06 21:20:00,
2013-04-06 15:23:00,46.3,35.9,29.67,WNW,293,7.8,14.5,67,0.00,,,0.02,WUHU216HW,2013-04-06 21:23:00,
2013-04-06 15:25:00,46.4,36.1,29.66,WNW,293,5.6,14.5,67,0.00,,,0.02,WUHU216HW,2013-04-06 21:25:00,
2013-04-06 15:26:00,46.4,36.5,29.66,NW,315,6.3,14.5,68,0.00,,,0.02,WUHU216HW,2013-04-06 21:26:00,
2013-04-06 15:28:00,46.4,36.5,29.67,NNW,338,4.7,11.6,68,0.00,,,0.02,WUHU216HW,2013-04-06 21:28:00,
2013-04-06 15:30:00,46.6,36.6,29.66,NNW,338,6.7,11.6,68,0.00,,,0.02,WUHU216HW,2013-04-06 21:30:00,
2013-04-06 15:31:00,46.6,36.6,29.66,NNW,338,6.7,11.6,68,0.00,,,0.02,WUHU216HW,2013-04-06 21:31:00,
2013-04-06 15:33:00,47.0,37.7,29.66,NNW,338,5.4,11.6,70,0.00,,,0.02,WUHU216HW,2013-04-06 21:33:00,
2013-04-06 15:35:00,46.6,37.5,29.66,North,0,7.4,9.2,70,0.00,,,0.02,WUHU216HW,2013-04-06 21:35:00,
2013-04-06 15:37:00,46.4,37.3,29.66,North,0,6.9,9.2,70,0.00,,,0.02,WUHU216HW,2013-04-06 21:37:00,
2013-04-06 15:38:00,46.8,37.9,29.66,North,0,4.7,9.2,71,0.00,,,0.02,WUHU216HW,2013-04-06 21:38:00,
2013-04-06 15:40:00,47.3,38.1,29.66,North,0,5.6,9.2,70,0.00,,,0.02,WUHU216HW,2013-04-06 21:40:00,
2013-04-06 15:42:00,47.9,38.5,29.66,NNW,338,6.9,10.1,70,0.00,,,0.02,WUHU216HW,2013-04-06 21:42:00,
2013-04-06 15:43:00,48.4,38.4,29.66,NNW,338,7.4,10.1,68,0.00,,,0.02,WUHU216HW,2013-04-06 21:43:00,
2013-04-06 15:45:00,48.8,36.7,29.66,NNW,338,9.2,13.4,63,0.00,,,0.02,WUHU216HW,2013-04-06 21:45:00,
2013-04-06 15:47:00,49.0,38.4,29.66,North,0,8.3,13.4,67,0.00,,,0.02,WUHU216HW,2013-04-06 21:47:00,
2013-04-06 15:48:00,49.0,37.3,29.66,North,0,5.4,13.4,64,0.00,,,0.02,WUHU216HW,2013-04-06 21:48:00,
2013-04-06 15:49:00,49.0,37.3,29.66,North,0,4.9,13.4,64,0.00,,,0.02,WUHU216HW,2013-04-06 21:49:00,
2013-04-06 15:51:00,49.1,38.3,29.66,NNW,338,6.5,13.4,66,0.00,,,0.02,WUHU216HW,2013-04-06 21:51:00,
2013-04-06 15:52:00,49.1,37.8,29.66,NNW,338,6.7,13.4,65,0.00,,,0.02,WUHU216HW,2013-04-06 21:52:00,
2013-04-06 15:53:00,49.1,37.4,29.66,North,0,6.0,13.4,64,0.00,,,0.02,WUHU216HW,2013-04-06 21:53:00,
2013-04-06 15:54:00,49.1,37.4,29.66,North,0,6.0,13.4,64,0.00,,,0.02,WUHU216HW,2013-04-06 21:54:00,
2013-04-06 15:56:00,49.1,37.4,29.66,North,0,7.6,11.0,64,0.00,,,0.02,WUHU216HW,2013-04-06 21:56:00,
2013-04-06 15:58:00,49.1,38.3,29.66,North,0,9.2,11.0,66,0.00,,,0.02,WUHU216HW,2013-04-06 21:58:00,
2013-04-06 15:59:00,49.1,37.4,29.66,North,0,8.3,11.0,64,0.00,,,0.02,WUHU216HW,2013-04-06 21:59:00,
2013-04-06 16:02:00,49.7,38.0,29.65,North,0,7.6,11.0,64,0.00,,,0.02,WUHU216HW,2013-04-06 22:02:00,
2013-04-06 16:03:00,49.9,38.2,29.65,North,0,10.7,11.4,64,0.00,,,0.02,WUHU216HW,2013-04-06 22:03:00,
2013-04-06 16:04:00,49.9,36.1,29.65,North,0,8.7,11.4,59,0.00,,,0.02,WUHU216HW,2013-04-06 22:04:00,
2013-04-06 16:07:00,49.7,36.8,29.66,NNW,338,8.5,12.8,61,0.00,,,0.02,WUHU216HW,2013-04-06 22:07:00,
2013-04-06 16:09:00,49.3,35.7,29.65,North,0,12.1,12.8,59,0.00,,,0.02,WUHU216HW,2013-04-06 22:09:00,
2013-04-06 16:10:00,49.3,36.5,29.66,North,0,8.5,12.8,61,0.00,,,0.02,WUHU216HW,2013-04-06 22:10:00,
2013-04-06 16:12:00,49.1,35.9,29.66,NNW,338,8.7,12.8,60,0.00,,,0.02,WUHU216HW,2013-04-06 22:12:00,
2013-04-06 16:14:00,49.3,37.6,29.66,NNW,338,10.5,12.8,64,0.00,,,0.02,WUHU216HW,2013-04-06 22:14:00,
2013-04-06 16:15:00,49.3,37.6,29.66,NW,315,12.3,13.6,64,0.00,,,0.02,WUHU216HW,2013-04-06 22:15:00,
2013-04-06 16:17:00,49.0,36.9,29.66,WNW,293,14.1,17.2,63,0.00,,,0.02,WUHU216HW,2013-04-06 22:17:00,
2013-04-06 16:20:00,47.7,36.1,29.66,WNW,293,17.2,17.4,64,0.00,,,0.02,WUHU216HW,2013-04-06 22:20:00,
2013-04-06 16:23:00,46.8,35.7,29.66,NNW,338,12.8,19.2,65,0.00,,,0.02,WUHU216HW,2013-04-06 22:23:00,
2013-04-06 16:25:00,46.8,36.5,29.65,NNW,338,4.5,19.2,67,0.00,,,0.02,WUHU216HW,2013-04-06 22:25:00,
2013-04-06 16:28:00,47.0,37.0,29.64,NNW,338,3.4,19.2,68,0.00,,,0.02,WUHU216HW,2013-04-06 22:28:00,
2013-04-06 16:30:00,47.2,35.6,29.64,WSW,248,4.0,17.4,64,0.00,,,0.02,WUHU216HW,2013-04-06 22:30:00,
2013-04-06 16:31:00,47.2,35.2,29.64,SW,225,3.8,17.4,63,0.00,,,0.02,WUHU216HW,2013-04-06 22:31:00,
2013-04-06 16:33:00,47.5,35.9,29.65,SW,225,4.0,12.8,64,0.00,,,0.02,WUHU216HW,2013-04-06 22:33:00,
2013-04-06 16:35:00,47.9,35.9,29.64,WSW,248,1.3,6.9,63,0.00,,,0.02,WUHU216HW,2013-04-06 22:35:00,
2013-04-06 16:36:00,47.9,35.9,29.64,WSW,248,1.8,6.9,63,0.00,,,0.02,WUHU216HW,2013-04-06 22:36:00,
2013-04-06 16:38:00,47.9,35.5,29.65,West,270,1.1,6.9,62,0.00,,,0.02,WUHU216HW,2013-04-06 22:38:00,
2013-04-06 16:40:00,48.1,35.3,29.65,North,0,1.3,6.9,61,0.00,,,0.02,WUHU216HW,2013-04-06 22:40:00,
2013-04-06 16:41:00,48.1,35.3,29.64,North,0,0.7,5.6,61,0.00,,,0.02,WUHU216HW,2013-04-06 22:41:00,
2013-04-06 16:42:00,48.1,35.3,29.64,North,0,0.7,5.6,61,0.00,,,0.02,WUHU216HW,2013-04-06 22:42:00,
2013-04-06 16:43:00,48.1,35.6,29.65,North,0,4.7,4.9,62,0.00,,,0.02,WUHU216HW,2013-04-06 22:43:00,
2013-04-06 16:46:00,47.9,35.1,29.64,North,0,9.6,11.4,61,0.00,,,0.02,WUHU216HW,2013-04-06 22:46:00,
2013-04-06 16:47:00,47.9,35.5,29.64,North,0,8.1,11.4,62,0.00,,,0.02,WUHU216HW,2013-04-06 22:47:00,
2013-04-06 16:49:00,47.9,35.9,29.64,North,0,12.1,12.5,63,0.00,,,0.02,WUHU216HW,2013-04-06 22:49:00,
2013-04-06 16:52:00,48.1,34.9,29.64,North,0,5.4,12.5,60,0.00,,,0.02,WUHU216HW,2013-04-06 22:52:00,
2013-04-06 16:53:00,48.1,35.6,29.64,NNE,23,6.9,12.5,62,0.00,,,0.02,WUHU216HW,2013-04-06 22:53:00,
2013-04-06 16:54:00,48.2,35.5,29.65,North,0,6.3,12.5,61,0.00,,,0.02,WUHU216HW,2013-04-06 22:54:00,
2013-04-06 16:57:00,48.1,35.6,29.65,North,0,5.1,12.5,62,0.00,,,0.02,WUHU216HW,2013-04-06 22:57:00,
2013-04-06 16:58:00,48.2,35.8,29.65,North,0,4.5,12.5,62,0.00,,,0.02,WUHU216HW,2013-04-06 22:58:00,
2013-04-06 16:59:00,48.1,35.3,29.65,NNW,338,4.9,12.5,61,0.00,,,0.02,WUHU216HW,2013-04-06 22:59:00,
2013-04-06 17:03:00,48.1,35.3,29.65,NE,45,5.8,12.1,61,0.00,,,0.02,WUHU216HW,2013-04-06 23:03:00,
2013-04-06 17:05:00,48.2,35.1,29.65,North,0,5.1,12.1,60,0.00,,,0.02,WUHU216HW,2013-04-06 23:05:00,
2013-04-06 17:08:00,48.4,35.6,29.65,North,0,10.3,12.3,61,0.00,,,0.02,WUHU216HW,2013-04-06 23:08:00,
2013-04-06 17:09:00,48.4,36.0,29.65,North,0,14.3,14.3,62,0.00,,,0.02,WUHU216HW,2013-04-06 23:09:00,
2013-04-06 17:10:00,48.4,36.0,29.66,North,0,17.4,19.2,62,0.00,,,0.02,WUHU216HW,2013-04-06 23:10:00,
2013-04-06 17:12:00,48.2,36.3,29.66,NW,315,25.3,26.6,63,0.00,,,0.02,WUHU216HW,2013-04-06 23:12:00,
2013-04-06 17:14:00,47.2,36.0,29.66,NW,315,26.2,31.8,65,0.00,,,0.02,WUHU216HW,2013-04-06 23:14:00,
2013-04-06 17:15:00,46.4,36.1,29.66,NNW,338,31.8,35.3,67,0.00,,,0.02,WUHU216HW,2013-04-06 23:15:00,
2013-04-06 17:17:00,45.0,36.2,29.67,NW,315,26.4,35.3,71,0.00,,,0.02,WUHU216HW,2013-04-06 23:17:00,
2013-04-06 17:19:00,43.9,36.2,29.68,NW,315,17.2,35.3,74,0.00,,,0.02,WUHU216HW,2013-04-06 23:19:00,
2013-04-06 17:21:00,43.4,35.6,29.68,NW,315,16.6,35.3,74,0.00,,,0.02,WUHU216HW,2013-04-06 23:21:00,
2013-04-06 17:22:00,43.2,35.5,29.68,NW,315,17.7,35.3,74,0.00,,,0.02,WUHU216HW,2013-04-06 23:22:00,
2013-04-06 17:24:00,43.2,35.8,29.68,WNW,293,18.8,35.3,75,0.00,,,0.02,WUHU216HW,2013-04-06 23:24:00,
2013-04-06 17:25:00,43.4,36.0,29.68,NW,315,20.6,31.8,75,0.00,,,0.02,WUHU216HW,2013-04-06 23:25:00,
2013-04-06 17:26:00,43.6,36.5,29.68,NNW,338,18.3,26.4,76,0.00,,,0.02,WUHU216HW,2013-04-06 23:26:00,
2013-04-06 17:28:00,43.6,36.8,29.69,NW,315,17.9,25.9,77,0.00,,,0.02,WUHU216HW,2013-04-06 23:28:00,
2013-04-06 17:30:00,44.1,37.0,29.68,NNW,338,13.6,25.7,76,0.00,,,0.02,WUHU216HW,2013-04-06 23:30:00,
2013-04-06 17:31:00,44.3,37.2,29.68,NW,315,14.8,25.7,76,0.00,,,0.02,WUHU216HW,2013-04-06 23:31:00,
2013-04-06 17:32:00,44.3,36.5,29.68,NW,315,17.4,23.3,74,0.00,,,0.02,WUHU216HW,2013-04-06 23:32:00,
2013-04-06 17:33:00,44.3,36.2,29.68,NW,315,16.3,23.3,73,0.00,,,0.02,WUHU216HW,2013-04-06 23:33:00,
2013-04-06 17:35:00,44.1,34.6,29.69,NW,315,18.1,20.6,69,0.00,,,0.02,WUHU216HW,2013-04-06 23:35:00,
2013-04-06 17:37:00,43.9,35.2,29.69,NNW,338,14.8,19.7,71,0.00,,,0.02,WUHU216HW,2013-04-06 23:37:00,
2013-04-06 17:38:00,44.1,35.6,29.69,WNW,293,12.8,19.7,72,0.00,,,0.02,WUHU216HW,2013-04-06 23:38:00,
2013-04-06 17:40:00,44.1,34.6,29.69,WNW,293,14.1,19.7,69,0.00,,,0.02,WUHU216HW,2013-04-06 23:40:00,
2013-04-06 17:42:00,44.3,34.0,29.69,NW,315,19.9,23.9,67,0.00,,,0.02,WUHU216HW,2013-04-06 23:42:00,
2013-04-06 17:43:00,43.9,33.7,29.69,NW,315,20.1,23.9,67,0.00,,,0.02,WUHU216HW,2013-04-06 23:43:00,
2013-04-06 17:45:00,43.9,34.0,29.69,NW,315,15.2,23.9,68,0.00,,,0.02,WUHU216HW,2013-04-06 23:45:00,
2013-04-06 17:47:00,43.9,34.0,29.69,NNW,338,14.3,23.9,68,0.00,,,0.02,WUHU216HW,2013-04-06 23:47:00,
2013-04-06 17:48:00,43.9,34.0,29.69,NW,315,14.3,23.9,68,0.00,,,0.02,WUHU216HW,2013-04-06 23:48:00,
2013-04-06 17:50:00,43.9,34.0,29.69,NW,315,17.4,23.9,68,0.00,,,0.02,WUHU216HW,2013-04-06 23:50:00,
2013-04-06 17:52:00,43.9,33.7,29.69,NNW,338,15.9,23.7,67,0.00,,,0.02,WUHU216HW,2013-04-06 23:52:00,
2013-04-06 17:53:00,44.1,33.9,29.69,North,0,14.8,20.1,67,0.00,,,0.02,WUHU216HW,2013-04-06 23:53:00,
2013-04-06 17:56:00,43.9,34.0,29.69,North,0,11.4,19.5,68,0.00,,,0.02,WUHU216HW,2013-04-06 23:56:00,
2013-04-06 17:57:00,43.9,34.5,29.69,NW,315,10.3,19.5,69,0.00,,,0.02,WUHU216HW,2013-04-06 23:57:00,
2013-04-06 17:58:00,43.9,34.5,29.69,NW,315,9.2,19.5,69,0.00,,,0.02,WUHU216HW,2013-04-06 23:58:00,
2013-04-06 18:01:00,43.6,34.1,29.68,NW,315,11.9,20.8,69,0.00,,,0.02,WUHU216HW,2013-04-07 00:01:00,
2013-04-06 18:02:00,43.4,34.3,29.68,NW,315,20.1,20.8,70,0.00,,,0.02,WUHU216HW,2013-04-07 00:02:00,
2013-04-06 18:03:00,43.4,34.3,29.68,NW,315,18.1,20.8,70,0.00,,,0.02,WUHU216HW,2013-04-07 00:03:00,
2013-04-06 18:07:00,42.7,34.7,29.68,NW,315,18.8,20.8,73,0.00,,,0.02,WUHU216HW,2013-04-07 00:07:00,
2013-04-06 18:08:00,42.7,34.7,29.68,NW,315,19.5,20.8,73,0.00,,,0.02,WUHU216HW,2013-04-07 00:08:00,
2013-04-06 18:12:00,42.1,34.7,29.69,NW,315,23.3,23.3,75,0.00,,,0.02,WUHU216HW,2013-04-07 00:12:00,
2013-04-06 18:13:00,42.1,35.4,29.69,West,270,17.9,23.3,77,0.00,,,0.02,WUHU216HW,2013-04-07 00:13:00,
2013-04-06 18:14:00,42.1,35.4,29.69,NW,315,20.1,23.3,77,0.00,,,0.02,WUHU216HW,2013-04-07 00:14:00,
2013-04-06 18:17:00,41.9,35.8,29.69,NNW,338,21.0,23.3,79,0.00,,,0.02,WUHU216HW,2013-04-07 00:17:00,
2013-04-06 18:18:00,41.8,35.0,29.69,NW,315,22.6,23.3,77,0.00,,,0.02,WUHU216HW,2013-04-07 00:18:00,
2013-04-06 18:19:00,41.6,35.2,29.69,NW,315,16.3,23.3,78,0.00,,,0.02,WUHU216HW,2013-04-07 00:19:00,
2013-04-06 18:22:00,41.2,35.1,29.69,NW,315,11.4,22.6,79,0.00,,,0.02,WUHU216HW,2013-04-07 00:22:00,
2013-04-06 18:23:00,41.2,34.8,29.68,NW,315,11.9,22.6,78,0.00,,,0.02,WUHU216HW,2013-04-07 00:23:00,
2013-04-06 18:24:00,41.0,34.7,29.68,NW,315,10.5,22.6,78,0.00,,,0.02,WUHU216HW,2013-04-07 00:24:00,
2013-04-06 18:25:00,41.0,34.9,29.69,WNW,293,9.8,22.6,79,0.00,,,0.02,WUHU216HW,2013-04-07 00:25:00,
2013-04-06 18:27:00,41.0,34.9,29.68,NW,315,8.5,22.6,79,0.00,,,0.02,WUHU216HW,2013-04-07 00:27:00,
2013-04-06 18:28:00,41.0,34.3,29.68,NW,315,6.5,19.9,77,0.00,,,0.02,WUHU216HW,2013-04-07 00:28:00,
2013-04-06 18:29:00,41.0,34.7,29.68,NW,315,7.2,16.3,78,0.00,,,0.02,WUHU216HW,2013-04-07 00:29:00,
2013-04-06 18:30:00,41.2,34.8,29.68,NW,315,5.4,15.0,78,0.00,,,0.02,WUHU216HW,2013-04-07 00:30:00,
2013-04-06 18:32:00,41.2,34.8,29.68,NNW,338,6.3,13.4,78,0.00,,,0.02,WUHU216HW,2013-04-07 00:32:00,
2013-04-06 18:34:00,41.4,35.0,29.68,NNW,338,4.7,11.9,78,0.00,,,0.02,WUHU216HW,2013-04-07 00:34:00,
2013-04-06 18:35:00,41.4,34.7,29.68,NNW,338,4.5,9.2,77,0.00,,,0.02,WUHU216HW,2013-04-07 00:35:00,
2013-04-06 18:38:00,41.6,33.2,29.68,NW,315,6.3,9.2,72,0.00,,,0.02,WUHU216HW,2013-04-07 00:38:00,
2013-04-06 18:39:00,41.9,33.9,29.68,NNW,338,6.9,9.2,73,0.00,,,0.02,WUHU216HW,2013-04-07 00:39:00,
2013-04-06 18:40:00,42.1,33.5,29.68,West,270,7.6,10.5,71,0.00,,,0.02,WUHU216HW,2013-04-07 00:40:00,
2013-04-06 18:42:00,42.7,32.0,29.68,NNW,338,12.5,12.5,66,0.00,,,0.02,WUHU216HW,2013-04-07 00:42:00,
2013-04-06 18:44:00,42.8,31.9,29.68,NW,315,12.1,12.5,65,0.00,,,0.02,WUHU216HW,2013-04-07 00:44:00,
2013-04-06 18:45:00,43.2,32.2,29.68,NW,315,11.2,12.8,65,0.00,,,0.02,WUHU216HW,2013-04-07 00:45:00,
2013-04-06 18:48:00,43.4,32.0,29.68,NW,315,8.1,12.8,64,0.00,,,0.02,WUHU216HW,2013-04-07 00:48:00,
2013-04-06 18:49:00,43.4,32.0,29.68,WNW,293,12.3,12.8,64,0.00,,,0.02,WUHU216HW,2013-04-07 00:49:00,
2013-04-06 18:50:00,43.4,30.8,29.68,NW,315,13.6,15.0,61,0.00,,,0.02,WUHU216HW,2013-04-07 00:50:00,
2013-04-06 18:53:00,43.7,31.1,29.68,WNW,293,13.2,19.2,61,0.00,,,0.02,WUHU216HW,2013-04-07 00:53:00,
2013-04-06 18:54:00,43.7,30.8,29.68,NW,315,11.6,19.2,60,0.00,,,0.02,WUHU216HW,2013-04-07 00:54:00,
2013-04-06 18:55:00,43.7,30.3,29.68,NW,315,13.0,19.2,59,0.00,,,0.02,WUHU216HW,2013-04-07 00:55:00,
2013-04-06 18:59:00,43.9,30.5,29.68,WNW,293,13.2,19.2,59,0.00,,,0.02,WUHU216HW,2013-04-07 00:59:00,
2013-04-06 19:00:00,43.9,30.5,29.68,WNW,293,9.2,19.2,59,0.00,,,0.02,WUHU216HW,2013-04-07 01:00:00,
2013-04-06 19:01:00,43.9,30.5,29.68,WNW,293,8.3,19.2,59,0.00,,,0.02,WUHU216HW,2013-04-07 01:01:00,
2013-04-06 19:04:00,44.1,30.7,29.68,WNW,293,10.5,13.6,59,0.00,,,0.02,WUHU216HW,2013-04-07 01:04:00,
2013-04-06 19:05:00,44.3,30.9,29.68,WSW,248,9.2,13.6,59,0.00,,,0.02,WUHU216HW,2013-04-07 01:05:00,
2013-04-06 19:06:00,44.3,31.3,29.68,West,270,10.5,13.6,60,0.00,,,0.02,WUHU216HW,2013-04-07 01:06:00,
2013-04-06 19:07:00,44.3,30.9,29.68,WNW,293,11.4,13.6,59,0.00,,,0.02,WUHU216HW,2013-04-07 01:07:00,
2013-04-06 19:10:00,44.5,31.1,29.68,West,270,9.2,13.0,59,0.00,,,0.02,WUHU216HW,2013-04-07 01:10:00,
2013-04-06 19:11:00,44.6,31.2,29.68,West,270,8.9,13.0,59,0.00,,,0.02,WUHU216HW,2013-04-07 01:11:00,
2013-04-06 19:12:00,44.6,31.2,29.68,West,270,12.1,13.0,59,0.00,,,0.02,WUHU216HW,2013-04-07 01:12:00,
2013-04-06 19:15:00,45.0,31.2,29.67,West,270,7.8,13.0,58,0.00,,,0.02,WUHU216HW,2013-04-07 01:15:00,
2013-04-06 19:16:00,45.0,31.2,29.68,West,270,6.7,12.1,58,0.00,,,0.02,WUHU216HW,2013-04-07 01:16:00,
2013-04-06 19:17:00,45.0,31.6,29.67,West,270,6.9,12.1,59,0.00,,,0.02,WUHU216HW,2013-04-07 01:17:00,
2013-04-06 19:20:00,44.6,31.2,29.68,West,270,10.1,12.1,59,0.00,,,0.02,WUHU216HW,2013-04-07 01:20:00,
2013-04-06 19:22:00,44.5,31.1,29.68,WNW,293,5.4,12.1,59,0.00,,,0.02,WUHU216HW,2013-04-07 01:22:00,
2013-04-06 19:25:00,44.3,31.7,29.68,NNW,338,3.4,11.0,61,0.00,,,0.02,WUHU216HW,2013-04-07 01:25:00,
2013-04-06 19:26:00,44.3,31.7,29.68,NNW,338,3.4,11.0,61,0.00,,,0.02,WUHU216HW,2013-04-07 01:26:00,
2013-04-06 19:27:00,44.1,32.0,29.68,NW,315,4.0,11.0,62,0.00,,,0.02,WUHU216HW,2013-04-07 01:27:00,
2013-04-06 19:28:00,43.9,31.8,29.68,NW,315,4.0,11.0,62,0.00,,,0.02,WUHU216HW,2013-04-07 01:28:00,
2013-04-06 19:31:00,43.6,31.8,29.68,WNW,293,3.6,10.5,63,0.00,,,0.02,WUHU216HW,2013-04-07 01:31:00,
2013-04-06 19:32:00,43.6,31.8,29.68,NW,315,3.4,6.3,63,0.00,,,0.02,WUHU216HW,2013-04-07 01:32:00,
2013-04-06 19:33:00,43.6,31.8,29.68,NW,315,2.9,5.4,63,0.00,,,0.02,WUHU216HW,2013-04-07 01:33:00,
2013-04-06 19:36:00,43.4,31.2,29.68,NW,315,1.1,5.4,62,0.00,,,0.02,WUHU216HW,2013-04-07 01:36:00,
2013-04-06 19:37:00,43.4,31.2,29.67,NW,315,2.0,4.3,62,0.00,,,0.02,WUHU216HW,2013-04-07 01:37:00,
2013-04-06 19:39:00,43.4,31.2,29.67,NW,315,1.1,4.3,62,0.00,,,0.02,WUHU216HW,2013-04-07 01:39:00,
2013-04-06 19:41:00,43.2,31.1,29.67,NNW,338,1.1,4.0,62,0.00,,,0.02,WUHU216HW,2013-04-07 01:41:00,
2013-04-06 19:42:00,43.2,31.1,29.67,NNW,338,1.1,4.0,62,0.00,,,0.02,WUHU216HW,2013-04-07 01:42:00,
2013-04-06 19:44:00,43.2,31.1,29.67,NNW,338,0.9,3.4,62,0.00,,,0.02,WUHU216HW,2013-04-07 01:44:00,
2013-04-06 19:46:00,43.2,31.1,29.68,NNW,338,1.1,2.5,62,0.00,,,0.02,WUHU216HW,2013-04-07 01:46:00,
2013-04-06 19:47:00,43.2,30.6,29.67,North,0,1.1,2.0,61,0.00,,,0.02,WUHU216HW,2013-04-07 01:47:00,
2013-04-06 19:49:00,43.2,31.1,29.67,North,0,1.1,1.8,62,0.00,,,0.02,WUHU216HW,2013-04-07 01:49:00,
2013-04-06 19:52:00,43.2,30.6,29.67,NNE,23,0.0,2.0,61,0.00,,,0.02,WUHU216HW,2013-04-07 01:52:00,
2013-04-06 19:54:00,43.4,30.8,29.67,NNE,23,0.4,2.0,61,0.00,,,0.02,WUHU216HW,2013-04-07 01:54:00,
2013-04-06 19:57:00,43.4,30.4,29.67,ENE,68,1.6,2.0,60,0.00,,,0.02,WUHU216HW,2013-04-07 01:57:00,
2013-04-06 19:59:00,43.4,30.4,29.67,ENE,68,2.7,2.7,60,0.00,,,0.02,WUHU216HW,2013-04-07 01:59:00,
2013-04-06 20:02:00,43.6,30.2,29.67,NE,45,2.7,3.1,59,0.00,,,0.02,WUHU216HW,2013-04-07 02:02:00,
2013-04-06 20:05:00,43.4,30.8,29.67,ENE,68,4.0,4.0,61,0.00,,,0.02,WUHU216HW,2013-04-07 02:05:00,
2013-04-06 20:07:00,43.2,31.1,29.67,North,0,3.1,4.0,62,0.00,,,0.02,WUHU216HW,2013-04-07 02:07:00,
2013-04-06 20:10:00,42.8,30.7,29.67,North,0,4.0,4.3,62,0.00,,,0.02,WUHU216HW,2013-04-07 02:10:00,
2013-04-06 20:12:00,42.8,30.2,29.67,NE,45,2.9,4.3,61,0.00,,,0.02,WUHU216HW,2013-04-07 02:12:00,
2013-04-06 20:13:00,42.8,30.2,29.67,NNE,23,2.5,4.3,61,0.00,,,0.02,WUHU216HW,2013-04-07 02:13:00,
2013-04-06 20:15:00,42.8,30.2,29.67,North,0,3.4,4.3,61,0.00,,,0.02,WUHU216HW,2013-04-07 02:15:00,
2013-04-06 20:18:00,43.0,30.1,29.67,North,0,1.3,4.3,60,0.00,,,0.02,WUHU216HW,2013-04-07 02:18:00,
2013-04-06 20:20:00,43.2,29.8,29.67,North,0,1.8,4.0,59,0.00,,,0.02,WUHU216HW,2013-04-07 02:20:00,
2013-04-06 20:24:00,43.4,30.0,29.67,North,0,3.4,4.0,59,0.00,,,0.02,WUHU216HW,2013-04-07 02:24:00,
2013-04-06 20:25:00,43.4,30.0,29.67,North,0,3.6,3.6,59,0.00,,,0.02,WUHU216HW,2013-04-07 02:25:00,
2013-04-06 20:30:00,43.0,30.9,29.67,North,0,3.1,4.5,62,0.00,,,0.02,WUHU216HW,2013-04-07 02:30:00,
2013-04-06 20:33:00,42.7,30.5,29.67,North,0,4.0,4.7,62,0.00,,,0.02,WUHU216HW,2013-04-07 02:33:00,
2013-04-06 20:35:00,42.5,30.7,29.67,North,0,3.6,4.7,63,0.00,,,0.02,WUHU216HW,2013-04-07 02:35:00,
2013-04-06 20:38:00,42.1,30.8,29.67,NNE,23,4.0,4.7,64,0.00,,,0.02,WUHU216HW,2013-04-07 02:38:00,
2013-04-06 20:40:00,42.1,30.8,29.67,North,0,4.0,4.7,64,0.00,,,0.02,WUHU216HW,2013-04-07 02:40:00,
2013-04-06 20:43:00,42.1,30.8,29.67,North,0,1.8,4.7,64,0.00,,,0.02,WUHU216HW,2013-04-07 02:43:00,
2013-04-06 20:45:00,41.9,31.0,29.67,North,0,1.6,4.7,65,0.00,,,0.02,WUHU216HW,2013-04-07 02:45:00,
2013-04-06 20:47:00,41.9,31.0,29.67,North,0,1.8,4.3,65,0.00,,,0.02,WUHU216HW,2013-04-07 02:47:00,
2013-04-06 20:49:00,41.9,30.6,29.67,North,0,1.6,4.3,64,0.00,,,0.02,WUHU216HW,2013-04-07 02:49:00,
2013-04-06 20:50:00,42.1,30.4,29.67,North,0,1.6,4.0,63,0.00,,,0.02,WUHU216HW,2013-04-07 02:50:00,
2013-04-06 20:51:00,42.1,30.4,29.67,North,0,1.3,4.0,63,0.00,,,0.02,WUHU216HW,2013-04-07 02:51:00,
2013-04-06 20:52:00,42.1,30.8,29.67,North,0,1.8,3.1,64,0.00,,,0.02,WUHU216HW,2013-04-07 02:52:00,
2013-04-06 20:54:00,42.1,30.8,29.67,North,0,2.5,2.7,64,0.00,,,0.02,WUHU216HW,2013-04-07 02:54:00,
2013-04-06 20:55:00,42.1,30.8,29.67,North,0,2.9,2.9,64,0.00,,,0.02,WUHU216HW,2013-04-07 02:55:00,
2013-04-06 20:56:00,42.1,30.8,29.67,North,0,2.9,2.9,64,0.00,,,0.02,WUHU216HW,2013-04-07 02:56:00,
2013-04-06 20:57:00,41.9,30.6,29.67,North,0,2.7,3.1,64,0.00,,,0.02,WUHU216HW,2013-04-07 02:57:00,
2013-04-06 21:00:00,41.8,30.9,29.67,North,0,1.8,4.3,65,0.00,,,0.02,WUHU216HW,2013-04-07 03:00:00,
2013-04-06 21:01:00,41.8,30.9,29.67,North,0,1.8,4.3,65,0.00,,,0.02,WUHU216HW,2013-04-07 03:01:00,
2013-04-06 21:03:00,41.6,30.7,29.67,North,0,1.1,4.3,65,0.00,,,0.02,WUHU216HW,2013-04-07 03:03:00,
2013-04-06 21:05:00,41.6,30.7,29.67,NNW,338,2.0,4.3,65,0.00,,,0.02,WUHU216HW,2013-04-07 03:05:00,
2013-04-06 21:07:00,41.6,30.7,29.67,North,0,1.6,4.3,65,0.00,,,0.02,WUHU216HW,2013-04-07 03:07:00,
2013-04-06 21:08:00,41.4,30.9,29.67,North,0,3.4,4.3,66,0.00,,,0.02,WUHU216HW,2013-04-07 03:08:00,
2013-04-06 21:10:00,41.4,30.9,29.67,WSW,248,2.2,4.0,66,0.00,,,0.02,WUHU216HW,2013-04-07 03:10:00,
2013-04-06 21:12:00,41.2,30.3,29.67,WSW,248,1.6,4.0,65,0.00,,,0.02,WUHU216HW,2013-04-07 03:12:00,
2013-04-06 21:13:00,41.2,30.3,29.67,South,180,1.1,4.0,65,0.00,,,0.02,WUHU216HW,2013-04-07 03:13:00,
2013-04-06 21:15:00,41.0,30.2,29.67,WSW,248,2.0,4.0,65,0.00,,,0.02,WUHU216HW,2013-04-07 03:15:00,
2013-04-06 21:16:00,41.0,30.2,29.67,WSW,248,1.3,4.0,65,0.00,,,0.02,WUHU216HW,2013-04-07 03:16:00,
2013-04-06 21:17:00,41.0,30.2,29.68,SW,225,1.3,4.0,65,0.00,,,0.02,WUHU216HW,2013-04-07 03:17:00,
2013-04-06 21:18:00,40.9,30.0,29.68,WSW,248,2.9,4.0,65,0.00,,,0.02,WUHU216HW,2013-04-07 03:18:00,
2013-04-06 21:20:00,40.9,30.3,29.68,WSW,248,1.6,3.4,66,0.00,,,0.02,WUHU216HW,2013-04-07 03:20:00,
2013-04-06 21:21:00,40.7,29.8,29.67,SW,225,1.8,3.4,65,0.00,,,0.02,WUHU216HW,2013-04-07 03:21:00,
2013-04-06 21:22:00,40.7,30.2,29.67,SW,225,1.8,3.4,66,0.00,,,0.02,WUHU216HW,2013-04-07 03:22:00,
2013-04-06 21:23:00,40.7,30.2,29.67,SW,225,2.2,3.4,66,0.00,,,0.02,WUHU216HW,2013-04-07 03:23:00,
2013-04-06 21:25:00,40.7,30.2,29.67,SW,225,4.0,4.0,66,0.00,,,0.02,WUHU216HW,2013-04-07 03:25:00,
2013-04-06 21:26:00,40.7,30.2,29.67,WSW,248,4.7,4.7,66,0.00,,,0.02,WUHU216HW,2013-04-07 03:26:00,
2013-04-06 21:27:00,40.5,30.3,29.67,WSW,248,4.7,4.7,67,0.00,,,0.02,WUHU216HW,2013-04-07 03:27:00,
2013-04-06 21:28:00,40.5,30.3,29.67,WSW,248,3.4,4.7,67,0.00,,,0.02,WUHU216HW,2013-04-07 03:28:00,
2013-04-06 21:31:00,40.1,30.0,29.67,West,270,5.8,5.8,67,0.00,,,0.02,WUHU216HW,2013-04-07 03:31:00,
2013-04-06 21:32:00,40.0,31.0,29.67,WNW,293,6.5,6.5,70,0.00,,,0.02,WUHU216HW,2013-04-07 03:32:00,
2013-04-06 21:34:00,40.0,30.6,29.67,West,270,6.9,7.6,69,0.00,,,0.02,WUHU216HW,2013-04-07 03:34:00,
2013-04-06 21:36:00,39.8,30.4,29.67,West,270,7.2,7.6,69,0.00,,,0.02,WUHU216HW,2013-04-07 03:36:00,
2013-04-06 21:37:00,39.8,30.8,29.67,West,270,5.8,7.6,70,0.00,,,0.02,WUHU216HW,2013-04-07 03:37:00,
2013-04-06 21:40:00,39.6,30.3,29.67,West,270,6.3,7.6,69,0.00,,,0.02,WUHU216HW,2013-04-07 03:40:00,
2013-04-06 21:42:00,39.4,30.8,29.67,West,270,8.1,8.1,71,0.00,,,0.02,WUHU216HW,2013-04-07 03:42:00,
2013-04-06 21:43:00,39.4,30.8,29.67,West,270,7.6,8.1,71,0.00,,,0.02,WUHU216HW,2013-04-07 03:43:00,
2013-04-06 21:45:00,39.2,30.6,29.67,West,270,7.6,8.1,71,0.00,,,0.02,WUHU216HW,2013-04-07 03:45:00,
2013-04-06 21:47:00,39.1,30.8,29.67,West,270,7.6,8.1,72,0.00,,,0.02,WUHU216HW,2013-04-07 03:47:00,
2013-04-06 21:48:00,39.1,30.8,29.67,West,270,7.8,8.1,72,0.00,,,0.02,WUHU216HW,2013-04-07 03:48:00,
2013-04-06 21:50:00,38.9,30.2,29.67,West,270,6.0,8.1,71,0.00,,,0.02,WUHU216HW,2013-04-07 03:50:00,
2013-04-06 21:52:00,38.7,30.4,29.67,West,270,7.4,8.1,72,0.00,,,0.02,WUHU216HW,2013-04-07 03:52:00,
2013-04-06 21:53:00,38.7,30.1,29.67,West,270,6.9,8.1,71,0.00,,,0.02,WUHU216HW,2013-04-07 03:53:00,
2013-04-06 21:55:00,38.7,30.1,29.67,West,270,6.5,8.1,71,0.00,,,0.02,WUHU216HW,2013-04-07 03:55:00,
2013-04-06 21:57:00,38.5,30.2,29.67,West,270,7.6,7.8,72,0.00,,,0.02,WUHU216HW,2013-04-07 03:57:00,
2013-04-06 21:58:00,38.5,30.6,29.67,WSW,248,7.4,7.8,73,0.00,,,0.02,WUHU216HW,2013-04-07 03:58:00,
2013-04-06 22:00:00,38.5,30.6,29.67,West,270,7.8,8.1,73,0.00,,,0.02,WUHU216HW,2013-04-07 04:00:00,
2013-04-06 22:01:00,38.5,30.6,29.67,West,270,7.8,8.1,73,0.00,,,0.02,WUHU216HW,2013-04-07 04:01:00,
2013-04-06 22:06:00,38.5,31.0,29.68,West,270,8.1,8.9,74,0.00,,,0.02,WUHU216HW,2013-04-07 04:06:00,
2013-04-06 22:07:00,38.5,31.0,29.68,WSW,248,8.1,8.9,74,0.00,,,0.02,WUHU216HW,2013-04-07 04:07:00,
2013-04-06 22:12:00,38.7,31.2,29.68,West,270,7.8,8.9,74,0.00,,,0.02,WUHU216HW,2013-04-07 04:12:00,
2013-04-06 22:13:00,38.7,31.2,29.68,WSW,248,6.9,8.9,74,0.00,,,0.02,WUHU216HW,2013-04-07 04:13:00,
2013-04-06 22:17:00,38.9,31.2,29.68,West,270,6.9,8.5,74,0.00,,,0.02,WUHU216HW,2013-04-07 04:17:00,
2013-04-06 22:18:00,38.9,31.2,29.68,West,270,7.6,8.5,74,0.00,,,0.02,WUHU216HW,2013-04-07 04:18:00,
2013-04-06 22:19:00,39.1,31.4,29.67,West,270,5.8,8.5,74,0.00,,,0.02,WUHU216HW,2013-04-07 04:19:00,
2013-04-06 22:22:00,39.1,31.4,29.68,WNW,293,6.9,8.1,74,0.00,,,0.02,WUHU216HW,2013-04-07 04:22:00,
2013-04-06 22:23:00,39.1,31.4,29.68,West,270,8.1,8.1,74,0.00,,,0.02,WUHU216HW,2013-04-07 04:23:00,
2013-04-06 22:24:00,39.1,31.4,29.68,West,270,6.3,8.1,74,0.00,,,0.02,WUHU216HW,2013-04-07 04:24:00,
2013-04-06 22:27:00,39.1,31.2,29.67,WNW,293,5.8,8.1,73,0.00,,,0.02,WUHU216HW,2013-04-07 04:27:00,
2013-04-06 22:28:00,39.1,31.2,29.67,WNW,293,5.8,8.1,73,0.00,,,0.02,WUHU216HW,2013-04-07 04:28:00,
2013-04-06 22:30:00,39.2,31.2,29.68,WNW,293,4.3,8.1,73,0.00,,,0.02,WUHU216HW,2013-04-07 04:30:00,
2013-04-06 22:32:00,39.4,31.2,29.67,West,270,5.4,8.1,72,0.00,,,0.02,WUHU216HW,2013-04-07 04:32:00,
2013-04-06 22:33:00,39.4,31.2,29.67,WNW,293,5.8,8.1,72,0.00,,,0.02,WUHU216HW,2013-04-07 04:33:00,
2013-04-06 22:35:00,39.4,31.2,29.67,West,270,5.4,6.9,72,0.00,,,0.02,WUHU216HW,2013-04-07 04:35:00,
2013-04-06 22:37:00,39.6,31.3,29.67,West,270,5.4,6.3,72,0.00,,,0.02,WUHU216HW,2013-04-07 04:37:00,
2013-04-06 22:38:00,39.4,31.2,29.67,West,270,6.0,6.3,72,0.00,,,0.02,WUHU216HW,2013-04-07 04:38:00,
2013-04-06 22:40:00,39.6,31.0,29.67,West,270,6.3,6.3,71,0.00,,,0.02,WUHU216HW,2013-04-07 04:40:00,
2013-04-06 22:42:00,39.6,31.3,29.68,West,270,4.7,6.3,72,0.00,,,0.02,WUHU216HW,2013-04-07 04:42:00,
2013-04-06 22:43:00,39.6,31.3,29.67,West,270,5.4,6.3,72,0.00,,,0.02,WUHU216HW,2013-04-07 04:43:00,
2013-04-06 22:45:00,39.6,31.3,29.67,West,270,4.0,6.3,72,0.00,,,0.02,WUHU216HW,2013-04-07 04:45:00,
2013-04-06 22:48:00,39.6,31.3,29.67,WNW,293,4.5,6.3,72,0.00,,,0.02,WUHU216HW,2013-04-07 04:48:00,
2013-04-06 22:50:00,39.8,31.4,29.67,NW,315,4.0,6.3,72,0.00,,,0.02,WUHU216HW,2013-04-07 04:50:00,
2013-04-06 22:53:00,40.0,31.3,29.67,WNW,293,2.9,5.4,71,0.00,,,0.02,WUHU216HW,2013-04-07 04:53:00,
2013-04-06 22:57:00,40.0,31.3,29.68,West,270,3.4,4.7,71,0.00,,,0.02,WUHU216HW,2013-04-07 04:57:00,
2013-04-06 22:58:00,40.0,31.3,29.68,West,270,2.5,4.7,71,0.00,,,0.02,WUHU216HW,2013-04-07 04:58:00,
2013-04-06 22:59:00,40.0,31.3,29.68,NW,315,1.8,4.7,71,0.00,,,0.02,WUHU216HW,2013-04-07 04:59:00,
2013-04-06 23:02:00,40.0,31.3,29.68,NW,315,8.5,8.5,71,0.00,,,0.02,WUHU216HW,2013-04-07 05:02:00,
2013-04-06 23:03:00,40.0,31.0,29.68,NNW,338,8.5,8.5,70,0.00,,,0.02,WUHU216HW,2013-04-07 05:03:00,
2013-04-06 23:04:00,40.0,31.0,29.68,NW,315,8.1,8.5,70,0.00,,,0.02,WUHU216HW,2013-04-07 05:04:00,
2013-04-06 23:07:00,40.7,30.5,29.68,NNW,338,7.8,8.9,67,0.00,,,0.02,WUHU216HW,2013-04-07 05:07:00,
2013-04-06 23:08:00,40.9,30.7,29.68,NNW,338,6.3,8.9,67,0.00,,,0.02,WUHU216HW,2013-04-07 05:08:00,
2013-04-06 23:09:00,41.0,30.9,29.68,NNW,338,7.4,8.9,67,0.00,,,0.02,WUHU216HW,2013-04-07 05:09:00,
2013-04-06 23:10:00,41.0,30.9,29.68,NNW,338,7.4,8.9,67,0.00,,,0.02,WUHU216HW,2013-04-07 05:10:00,
2013-04-06 23:12:00,41.2,31.1,29.68,NNW,338,6.3,8.9,67,0.00,,,0.02,WUHU216HW,2013-04-07 05:12:00,
2013-04-06 23:13:00,41.2,31.1,29.68,North,0,6.9,8.9,67,0.00,,,0.02,WUHU216HW,2013-04-07 05:13:00,
2013-04-06 23:15:00,41.4,30.9,29.68,NNW,338,8.3,8.9,66,0.00,,,0.02,WUHU216HW,2013-04-07 05:15:00,
2013-04-06 23:17:00,41.6,30.7,29.68,North,0,8.9,8.9,65,0.00,,,0.02,WUHU216HW,2013-04-07 05:17:00,
2013-04-06 23:18:00,41.6,30.7,29.68,NNW,338,9.2,9.2,65,0.00,,,0.02,WUHU216HW,2013-04-07 05:18:00,
2013-04-06 23:20:00,41.6,31.1,29.68,NNW,338,7.6,9.2,66,0.00,,,0.02,WUHU216HW,2013-04-07 05:20:00,
2013-04-06 23:23:00,41.4,30.9,29.68,NNW,338,6.5,9.2,66,0.00,,,0.02,WUHU216HW,2013-04-07 05:23:00,
2013-04-06 23:25:00,41.4,31.2,29.68,NNW,338,6.9,9.2,67,0.00,,,0.02,WUHU216HW,2013-04-07 05:25:00,
2013-04-06 23:26:00,41.4,30.9,29.68,NNW,338,7.6,9.2,66,0.00,,,0.02,WUHU216HW,2013-04-07 05:26:00,
2013-04-06 23:29:00,41.4,31.2,29.68,NNW,338,6.5,7.8,67,0.00,,,0.02,WUHU216HW,2013-04-07 05:29:00,
2013-04-06 23:30:00,41.2,31.1,29.67,North,0,5.8,7.8,67,0.00,,,0.02,WUHU216HW,2013-04-07 05:30:00,
2013-04-06 23:31:00,41.2,31.1,29.68,North,0,6.3,7.8,67,0.00,,,0.02,WUHU216HW,2013-04-07 05:31:00,
2013-04-06 23:35:00,40.9,30.7,29.67,NNW,338,6.9,7.8,67,0.00,,,0.02,WUHU216HW,2013-04-07 05:35:00,
2013-04-06 23:36:00,40.9,30.7,29.68,NNW,338,6.3,7.8,67,0.00,,,0.02,WUHU216HW,2013-04-07 05:36:00,
2013-04-06 23:37:00,40.7,31.0,29.68,NW,315,6.9,7.2,68,0.00,,,0.02,WUHU216HW,2013-04-07 05:37:00,
2013-04-06 23:40:00,40.7,31.0,29.68,NW,315,6.9,7.2,68,0.00,,,0.02,WUHU216HW,2013-04-07 05:40:00,
2013-04-06 23:41:00,40.5,30.8,29.68,NW,315,8.5,8.5,68,0.00,,,0.02,WUHU216HW,2013-04-07 05:41:00,
2013-04-06 23:42:00,40.5,30.8,29.68,NNW,338,8.5,9.6,68,0.00,,,0.02,WUHU216HW,2013-04-07 05:42:00,
2013-04-06 23:45:00,40.5,30.8,29.68,NW,315,7.6,9.6,68,0.00,,,0.02,WUHU216HW,2013-04-07 05:45:00,
2013-04-06 23:47:00,40.7,31.0,29.68,NW,315,6.3,9.6,68,0.00,,,0.02,WUHU216HW,2013-04-07 05:47:00,
2013-04-06 23:50:00,40.5,30.3,29.68,NW,315,6.9,9.6,67,0.00,,,0.02,WUHU216HW,2013-04-07 05:50:00,
2013-04-06 23:52:00,40.5,30.3,29.68,NW,315,6.3,9.2,67,0.00,,,0.02,WUHU216HW,2013-04-07 05:52:00,
2013-04-06 23:55:00,40.7,30.5,29.68,NW,315,8.5,8.5,67,0.00,,,0.02,WUHU216HW,2013-04-07 05:55:00,
2013-04-06 23:58:00,40.7,30.5,29.68,NW,315,8.9,9.4,67,0.00,,,0.02,WUHU216HW,2013-04-07 05:58:00,